Time,TemperatureF,DewpointF,PressureIn,WindDirection,WindDirectionDegrees,WindSpeedMPH,WindSpeedGustMPH,Humidity,HourlyPrecipIn,Conditions,Clouds,dailyrainin,SolarRadiationWatts/m^2,SoftwareType,DateUTC
2013-07-06 00:00:00,73.2,62.8,29.83,SE,137,6.0,6.0,70,0.00,,,0.00,0,Wunderground v.1.15,2013-07-06 05:00:00,
2013-07-06 00:04:00,73.1,62.7,29.83,SE,146,2.0,9.0,70,0.00,,,0.00,0,Wunderground v.1.15,2013-07-06 05:04:00,
2013-07-06 00:05:00,73.1,62.7,29.83,SSE,162,5.0,9.0,70,0.00,,,0.00,0,Wunderground v.1.15,2013-07-06 05:05:00,
2013-07-06 00:08:00,72.9,62.9,29.83,ESE,118,3.0,9.0,71,0.00,,,0.00,0,Wunderground v.1.15,2013-07-06 05:08:00,
2013-07-06 00:09:00,72.9,62.9,29.83,SE,133,2.0,9.0,71,0.00,,,0.00,0,Wunderground v.1.15,2013-07-06 05:09:00,
2013-07-06 00:10:00,72.8,62.8,29.83,South,169,4.0,5.0,71,0.00,,,0.00,0,Wunderground v.1.15,2013-07-06 05:10:00,
2013-07-06 00:15:00,72.7,62.8,29.83,SSE,157,4.0,5.0,71,0.00,,,0.00,0,Wunderground v.1.15,2013-07-06 05:15:00,
2013-07-06 00:16:00,72.6,63.1,29.83,SE,132,6.0,6.0,72,0.00,,,0.00,0,Wunderground v.1.15,2013-07-06 05:16:00,
2013-07-06 00:18:00,72.5,63.0,29.83,SSE,148,5.0,6.0,72,0.00,,,0.00,0,Wunderground v.1.15,2013-07-06 05:18:00,
2013-07-06 00:19:00,72.5,63.0,29.83,SE,142,6.0,6.0,72,0.00,,,0.00,0,Wunderground v.1.15,2013-07-06 05:19:00,
2013-07-06 00:20:00,72.5,63.0,29.83,SE,135,2.0,5.0,72,0.00,,,0.00,0,Wunderground v.1.15,2013-07-06 05:20:00,
2013-07-06 00:23:00,72.5,63.0,29.83,SSE,149,6.0,6.0,72,0.00,,,0.00,0,Wunderground v.1.15,2013-07-06 05:23:00,
2013-07-06 00:24:00,72.5,63.0,29.83,SE,138,4.0,6.0,72,0.00,,,0.00,0,Wunderground v.1.15,2013-07-06 05:24:00,
2013-07-06 00:26:00,72.4,62.9,29.83,SE,131,6.0,6.0,72,0.00,,,0.00,0,Wunderground v.1.15,2013-07-06 05:26:00,
2013-07-06 00:29:00,72.4,62.9,29.83,SE,128,6.0,6.0,72,0.00,,,0.00,0,Wunderground v.1.15,2013-07-06 05:29:00,
2013-07-06 00:32:00,72.3,62.8,29.83,SE,140,7.0,7.0,72,0.00,,,0.00,0,Wunderground v.1.15,2013-07-06 05:32:00,
2013-07-06 00:34:00,72.3,63.2,29.83,SSE,157,4.0,7.0,73,0.00,,,0.00,0,Wunderground v.1.15,2013-07-06 05:34:00,
2013-07-06 00:35:00,72.2,62.7,29.83,SE,145,6.0,7.0,72,0.00,,,0.00,0,Wunderground v.1.15,2013-07-06 05:35:00,
2013-07-06 00:39:00,72.1,63.0,29.83,SSE,154,5.0,7.0,73,0.00,,,0.00,0,Wunderground v.1.15,2013-07-06 05:39:00,
2013-07-06 00:41:00,71.9,62.8,29.82,SSE,148,6.0,6.0,73,0.00,,,0.00,0,Wunderground v.1.15,2013-07-06 05:41:00,
2013-07-06 00:43:00,71.9,62.8,29.83,SSE,150,2.0,6.0,73,0.00,,,0.00,0,Wunderground v.1.15,2013-07-06 05:43:00,
2013-07-06 00:46:00,71.8,63.1,29.83,SSE,148,6.0,9.0,74,0.00,,,0.00,0,Wunderground v.1.15,2013-07-06 05:46:00,
2013-07-06 00:47:00,71.9,62.8,29.83,ESE,121,7.0,9.0,73,0.00,,,0.00,0,Wunderground v.1.15,2013-07-06 05:47:00,
2013-07-06 00:49:00,71.9,62.8,29.83,SE,126,0.0,9.0,73,0.00,,,0.00,0,Wunderground v.1.15,2013-07-06 05:49:00,
2013-07-06 00:50:00,71.9,62.8,29.83,SE,138,4.0,4.0,73,0.00,,,0.00,0,Wunderground v.1.15,2013-07-06 05:50:00,
2013-07-06 00:52:00,71.8,63.1,29.83,SE,144,5.0,5.0,74,0.00,,,0.00,0,Wunderground v.1.15,2013-07-06 05:52:00,
2013-07-06 00:55:00,71.7,63.0,29.83,SE,136,7.0,7.0,74,0.00,,,0.00,0,Wunderground v.1.15,2013-07-06 05:55:00,
2013-07-06 00:57:00,71.7,63.0,29.83,SSE,161,3.0,7.0,74,0.00,,,0.00,0,Wunderground v.1.15,2013-07-06 05:57:00,
2013-07-06 00:58:00,71.7,63.0,29.83,SE,133,4.0,7.0,74,0.00,,,0.00,0,Wunderground v.1.15,2013-07-06 05:58:00,
2013-07-06 01:03:00,71.5,62.8,29.83,ESE,118,8.0,8.0,74,0.00,,,0.00,0,Wunderground v.1.15,2013-07-06 06:03:00,
2013-07-06 01:04:00,71.4,62.7,29.83,SE,137,4.0,8.0,74,0.00,,,0.00,0,Wunderground v.1.15,2013-07-06 06:04:00,
2013-07-06 01:05:00,71.4,62.7,29.83,SE,133,2.0,8.0,74,0.00,,,0.00,0,Wunderground v.1.15,2013-07-06 06:05:00,
2013-07-06 01:08:00,71.3,62.6,29.83,SE,141,4.0,8.0,74,0.00,,,0.00,0,Wunderground v.1.15,2013-07-06 06:08:00,
2013-07-06 01:10:00,71.2,62.9,29.83,SE,134,2.0,3.0,75,0.00,,,0.00,0,Wunderground v.1.15,2013-07-06 06:10:00,
2013-07-06 01:11:00,71.2,62.9,29.83,SSE,149,4.0,4.0,75,0.00,,,0.00,0,Wunderground v.1.15,2013-07-06 06:11:00,
2013-07-06 01:12:00,71.2,62.9,29.83,SE,146,9.0,9.0,75,0.00,,,0.00,0,Wunderground v.1.15,2013-07-06 06:12:00,
2013-07-06 01:15:00,71.2,62.9,29.83,SE,128,1.0,9.0,75,0.00,,,0.00,0,Wunderground v.1.15,2013-07-06 06:15:00,
2013-07-06 01:17:00,71.2,62.9,29.83,SE,131,4.0,9.0,75,0.00,,,0.00,0,Wunderground v.1.15,2013-07-06 06:17:00,
2013-07-06 01:19:00,71.1,62.8,29.83,SSE,152,0.0,9.0,75,0.00,,,0.00,0,Wunderground v.1.15,2013-07-06 06:19:00,
2013-07-06 01:23:00,71.1,62.8,29.83,SE,142,3.0,6.0,75,0.00,,,0.00,0,Wunderground v.1.15,2013-07-06 06:23:00,
2013-07-06 01:24:00,71.1,62.8,29.83,SE,142,2.0,6.0,75,0.00,,,0.00,0,Wunderground v.1.15,2013-07-06 06:24:00,
2013-07-06 01:26:00,71.0,62.7,29.83,SE,145,2.0,6.0,75,0.00,,,0.00,0,Wunderground v.1.15,2013-07-06 06:26:00,
2013-07-06 01:27:00,71.0,62.7,29.83,SE,133,3.0,6.0,75,0.00,,,0.00,0,Wunderground v.1.15,2013-07-06 06:27:00,
2013-07-06 01:29:00,71.0,62.7,29.83,SE,136,2.0,6.0,75,0.00,,,0.00,0,Wunderground v.1.15,2013-07-06 06:29:00,
2013-07-06 01:32:00,70.9,62.6,29.83,SE,127,0.0,3.0,75,0.00,,,0.00,0,Wunderground v.1.15,2013-07-06 06:32:00,
2013-07-06 01:33:00,70.9,62.6,29.83,SE,133,3.0,3.0,75,0.00,,,0.00,0,Wunderground v.1.15,2013-07-06 06:33:00,
2013-07-06 01:34:00,70.9,63.0,29.83,SE,140,1.0,3.0,76,0.00,,,0.00,0,Wunderground v.1.15,2013-07-06 06:34:00,
2013-07-06 01:38:00,70.8,62.9,29.83,SE,132,2.0,4.0,76,0.00,,,0.00,0,Wunderground v.1.15,2013-07-06 06:38:00,
2013-07-06 01:39:00,70.8,62.9,29.83,SE,134,1.0,4.0,76,0.00,,,0.00,0,Wunderground v.1.15,2013-07-06 06:39:00,
2013-07-06 01:40:00,70.8,62.9,29.83,SE,135,1.0,2.0,76,0.00,,,0.00,0,Wunderground v.1.15,2013-07-06 06:40:00,
2013-07-06 01:44:00,70.7,62.8,29.83,SE,134,3.0,5.0,76,0.00,,,0.00,0,Wunderground v.1.15,2013-07-06 06:44:00,
2013-07-06 01:45:00,70.7,62.8,29.83,SE,135,3.0,5.0,76,0.00,,,0.00,0,Wunderground v.1.15,2013-07-06 06:45:00,
2013-07-06 01:46:00,70.7,62.8,29.83,SE,134,2.0,5.0,76,0.00,,,0.00,0,Wunderground v.1.15,2013-07-06 06:46:00,
2013-07-06 01:47:00,70.7,62.8,29.83,SE,131,2.0,5.0,76,0.00,,,0.00,0,Wunderground v.1.15,2013-07-06 06:47:00,
2013-07-06 01:52:00,70.5,62.6,29.83,SE,132,1.0,2.0,76,0.00,,,0.00,0,Wunderground v.1.15,2013-07-06 06:52:00,
2013-07-06 01:53:00,70.5,62.6,29.83,SE,140,1.0,2.0,76,0.00,,,0.00,0,Wunderground v.1.15,2013-07-06 06:53:00,
2013-07-06 01:55:00,70.5,62.6,29.83,SE,138,1.0,3.0,76,0.00,,,0.00,0,Wunderground v.1.15,2013-07-06 06:55:00,
2013-07-06 01:57:00,70.4,62.5,29.83,SE,139,2.0,3.0,76,0.00,,,0.00,0,Wunderground v.1.15,2013-07-06 06:57:00,
2013-07-06 02:00:00,70.3,62.7,29.83,SE,132,1.0,2.0,77,0.00,,,0.00,0,Wunderground v.1.15,2013-07-06 07:00:00,
2013-07-06 02:01:00,70.3,62.7,29.83,SE,140,3.0,3.0,77,0.00,,,0.00,0,Wunderground v.1.15,2013-07-06 07:01:00,
2013-07-06 02:02:00,70.3,62.7,29.83,SSE,148,3.0,3.0,77,0.00,,,0.00,0,Wunderground v.1.15,2013-07-06 07:02:00,
2013-07-06 02:06:00,70.4,62.8,29.83,SE,126,4.0,5.0,77,0.00,,,0.00,0,Wunderground v.1.15,2013-07-06 07:06:00,
2013-07-06 02:07:00,70.4,62.8,29.83,SE,133,4.0,5.0,77,0.00,,,0.00,0,Wunderground v.1.15,2013-07-06 07:07:00,
2013-07-06 02:08:00,70.5,62.9,29.83,SE,135,3.0,5.0,77,0.00,,,0.00,0,Wunderground v.1.15,2013-07-06 07:08:00,
2013-07-06 02:11:00,70.5,62.9,29.83,SE,137,3.0,7.0,77,0.00,,,0.00,0,Wunderground v.1.15,2013-07-06 07:11:00,
2013-07-06 02:12:00,70.5,62.9,29.83,SE,139,6.0,7.0,77,0.00,,,0.00,0,Wunderground v.1.15,2013-07-06 07:12:00,
2013-07-06 02:13:00,70.5,62.9,29.83,South,182,5.0,7.0,77,0.00,,,0.00,0,Wunderground v.1.15,2013-07-06 07:13:00,
2013-07-06 02:14:00,70.6,62.7,29.83,SE,133,3.0,7.0,76,0.00,,,0.00,0,Wunderground v.1.15,2013-07-06 07:14:00,
2013-07-06 02:15:00,70.6,62.7,29.83,SE,135,4.0,7.0,76,0.00,,,0.00,0,Wunderground v.1.15,2013-07-06 07:15:00,
2013-07-06 02:16:00,70.6,62.7,29.83,SSE,158,4.0,7.0,76,0.00,,,0.00,0,Wunderground v.1.15,2013-07-06 07:16:00,
2013-07-06 02:18:00,70.6,62.7,29.83,SE,140,4.0,7.0,76,0.00,,,0.00,0,Wunderground v.1.15,2013-07-06 07:18:00,
2013-07-06 02:20:00,70.6,62.7,29.83,SE,133,6.0,6.0,76,0.00,,,0.00,0,Wunderground v.1.15,2013-07-06 07:20:00,
2013-07-06 02:21:00,70.6,62.7,29.83,SE,138,2.0,6.0,76,0.00,,,0.00,0,Wunderground v.1.15,2013-07-06 07:21:00,
2013-07-06 02:22:00,70.6,62.7,29.83,SE,131,2.0,6.0,76,0.00,,,0.00,0,Wunderground v.1.15,2013-07-06 07:22:00,
2013-07-06 02:23:00,70.5,62.9,29.83,SE,141,2.0,6.0,77,0.00,,,0.00,0,Wunderground v.1.15,2013-07-06 07:23:00,
2013-07-06 02:25:00,70.5,62.9,29.83,SSE,148,1.0,6.0,77,0.00,,,0.00,0,Wunderground v.1.15,2013-07-06 07:25:00,
2013-07-06 02:26:00,70.4,62.8,29.83,SE,141,3.0,7.0,77,0.00,,,0.00,0,Wunderground v.1.15,2013-07-06 07:26:00,
2013-07-06 02:27:00,70.4,62.8,29.83,SE,132,1.0,7.0,77,0.00,,,0.00,0,Wunderground v.1.15,2013-07-06 07:27:00,
2013-07-06 02:29:00,70.4,62.8,29.83,SE,136,1.0,7.0,77,0.00,,,0.00,0,Wunderground v.1.15,2013-07-06 07:29:00,
2013-07-06 02:30:00,70.3,62.7,29.83,SE,145,1.0,2.0,77,0.00,,,0.00,0,Wunderground v.1.15,2013-07-06 07:30:00,
2013-07-06 02:32:00,70.3,62.7,29.83,SE,138,2.0,2.0,77,0.00,,,0.00,0,Wunderground v.1.15,2013-07-06 07:32:00,
2013-07-06 02:34:00,70.2,62.6,29.83,SE,144,3.0,5.0,77,0.00,,,0.00,0,Wunderground v.1.15,2013-07-06 07:34:00,
2013-07-06 02:35:00,70.2,63.0,29.83,SE,144,1.0,5.0,78,0.00,,,0.00,0,Wunderground v.1.15,2013-07-06 07:35:00,
2013-07-06 02:38:00,70.1,62.9,29.83,SE,138,0.0,5.0,78,0.00,,,0.00,0,Wunderground v.1.15,2013-07-06 07:38:00,
2013-07-06 02:40:00,70.1,62.9,29.83,SSE,159,2.0,2.0,78,0.00,,,0.00,0,Wunderground v.1.15,2013-07-06 07:40:00,
2013-07-06 02:41:00,70.0,62.8,29.83,SE,140,2.0,2.0,78,0.00,,,0.00,0,Wunderground v.1.15,2013-07-06 07:41:00,
2013-07-06 02:43:00,69.9,62.7,29.83,SE,141,1.0,2.0,78,0.00,,,0.00,0,Wunderground v.1.15,2013-07-06 07:43:00,
2013-07-06 02:44:00,70.0,62.8,29.83,SE,138,4.0,4.0,78,0.00,,,0.00,0,Wunderground v.1.15,2013-07-06 07:44:00,
2013-07-06 02:45:00,69.9,62.7,29.83,SE,142,2.0,4.0,78,0.00,,,0.00,0,Wunderground v.1.15,2013-07-06 07:45:00,
2013-07-06 02:46:00,69.9,62.7,29.83,SE,146,2.0,4.0,78,0.00,,,0.00,0,Wunderground v.1.15,2013-07-06 07:46:00,
2013-07-06 02:48:00,70.0,62.8,29.83,SE,142,0.0,5.0,78,0.00,,,0.00,0,Wunderground v.1.15,2013-07-06 07:48:00,
2013-07-06 02:50:00,69.9,62.7,29.83,SSE,150,3.0,5.0,78,0.00,,,0.00,0,Wunderground v.1.15,2013-07-06 07:50:00,
2013-07-06 02:52:00,69.9,62.7,29.83,SE,144,3.0,4.0,78,0.00,,,0.00,0,Wunderground v.1.15,2013-07-06 07:52:00,
2013-07-06 02:53:00,69.9,62.7,29.83,SE,127,4.0,5.0,78,0.00,,,0.00,0,Wunderground v.1.15,2013-07-06 07:53:00,
2013-07-06 02:54:00,69.9,62.7,29.83,SSE,155,2.0,5.0,78,0.00,,,0.00,0,Wunderground v.1.15,2013-07-06 07:54:00,
2013-07-06 02:57:00,70.0,62.8,29.83,SE,140,2.0,6.0,78,0.00,,,0.00,0,Wunderground v.1.15,2013-07-06 07:57:00,
2013-07-06 02:58:00,70.0,62.8,29.83,SSE,150,2.0,6.0,78,0.00,,,0.00,0,Wunderground v.1.15,2013-07-06 07:58:00,
2013-07-06 02:59:00,70.0,62.8,29.83,SSE,149,1.0,6.0,78,0.00,,,0.00,0,Wunderground v.1.15,2013-07-06 07:59:00,
2013-07-06 03:00:00,70.0,62.8,29.83,SSE,148,1.0,4.0,78,0.00,,,0.00,0,Wunderground v.1.15,2013-07-06 08:00:00,
2013-07-06 03:01:00,70.0,62.8,29.83,SSE,148,2.0,4.0,78,0.00,,,0.00,0,Wunderground v.1.15,2013-07-06 08:01:00,
2013-07-06 03:04:00,70.0,62.8,29.83,SSE,160,4.0,6.0,78,0.00,,,0.00,0,Wunderground v.1.15,2013-07-06 08:04:00,
2013-07-06 03:05:00,70.0,62.8,29.83,SSE,159,4.0,6.0,78,0.00,,,0.00,0,Wunderground v.1.15,2013-07-06 08:05:00,
2013-07-06 03:07:00,70.0,62.8,29.83,SSE,163,7.0,7.0,78,0.00,,,0.00,0,Wunderground v.1.15,2013-07-06 08:07:00,
2013-07-06 03:08:00,70.1,62.9,29.83,SSE,148,5.0,7.0,78,0.00,,,0.00,0,Wunderground v.1.15,2013-07-06 08:08:00,
2013-07-06 03:09:00,70.1,62.9,29.83,SE,136,4.0,7.0,78,0.00,,,0.00,0,Wunderground v.1.15,2013-07-06 08:09:00,
2013-07-06 03:10:00,70.1,62.9,29.83,ESE,121,4.0,5.0,78,0.00,,,0.00,0,Wunderground v.1.15,2013-07-06 08:10:00,
2013-07-06 03:13:00,70.1,62.9,29.83,SE,133,2.0,5.0,78,0.00,,,0.00,0,Wunderground v.1.15,2013-07-06 08:13:00,
2013-07-06 03:14:00,70.1,62.9,29.83,SE,144,4.0,5.0,78,0.00,,,0.00,0,Wunderground v.1.15,2013-07-06 08:14:00,
2013-07-06 03:15:00,70.0,62.8,29.83,SSE,153,1.0,5.0,78,0.00,,,0.00,0,Wunderground v.1.15,2013-07-06 08:15:00,
2013-07-06 03:17:00,70.0,62.8,29.83,SE,142,2.0,6.0,78,0.00,,,0.00,0,Wunderground v.1.15,2013-07-06 08:17:00,
2013-07-06 03:19:00,70.0,62.8,29.83,SE,136,4.0,8.0,78,0.00,,,0.00,0,Wunderground v.1.15,2013-07-06 08:19:00,
2013-07-06 03:20:00,70.0,62.8,29.83,SE,137,6.0,7.0,78,0.00,,,0.00,0,Wunderground v.1.15,2013-07-06 08:20:00,
2013-07-06 03:21:00,70.0,62.8,29.83,SE,138,3.0,7.0,78,0.00,,,0.00,0,Wunderground v.1.15,2013-07-06 08:21:00,
2013-07-06 03:24:00,69.9,62.7,29.83,SSE,150,1.0,7.0,78,0.00,,,0.00,0,Wunderground v.1.15,2013-07-06 08:24:00,
2013-07-06 03:25:00,69.9,62.7,29.83,SSE,148,1.0,7.0,78,0.00,,,0.00,0,Wunderground v.1.15,2013-07-06 08:25:00,
2013-07-06 03:26:00,69.9,62.7,29.83,SE,126,2.0,7.0,78,0.00,,,0.00,0,Wunderground v.1.15,2013-07-06 08:26:00,
2013-07-06 03:28:00,69.8,62.6,29.83,SE,132,5.0,7.0,78,0.00,,,0.00,0,Wunderground v.1.15,2013-07-06 08:28:00,
2013-07-06 03:29:00,69.8,62.6,29.83,ESE,123,2.0,7.0,78,0.00,,,0.00,0,Wunderground v.1.15,2013-07-06 08:29:00,
2013-07-06 03:30:00,69.8,62.6,29.83,SE,144,3.0,3.0,78,0.00,,,0.00,0,Wunderground v.1.15,2013-07-06 08:30:00,
2013-07-06 03:31:00,69.8,62.6,29.83,SE,142,1.0,3.0,78,0.00,,,0.00,0,Wunderground v.1.15,2013-07-06 08:31:00,
2013-07-06 03:32:00,69.8,62.6,29.83,SSE,153,4.0,6.0,78,0.00,,,0.00,0,Wunderground v.1.15,2013-07-06 08:32:00,
2013-07-06 03:34:00,69.7,62.5,29.83,SE,146,5.0,6.0,78,0.00,,,0.00,0,Wunderground v.1.15,2013-07-06 08:34:00,
2013-07-06 03:35:00,69.7,62.5,29.83,SE,145,3.0,6.0,78,0.00,,,0.00,0,Wunderground v.1.15,2013-07-06 08:35:00,
2013-07-06 03:37:00,69.7,62.5,29.83,SE,143,3.0,6.0,78,0.00,,,0.00,0,Wunderground v.1.15,2013-07-06 08:37:00,
2013-07-06 03:39:00,69.6,62.8,29.83,SE,136,3.0,6.0,79,0.00,,,0.00,0,Wunderground v.1.15,2013-07-06 08:39:00,
2013-07-06 03:40:00,69.6,62.8,29.83,SSE,155,2.0,3.0,79,0.00,,,0.00,0,Wunderground v.1.15,2013-07-06 08:40:00,
2013-07-06 03:41:00,69.6,62.8,29.83,SE,131,5.0,5.0,79,0.00,,,0.00,0,Wunderground v.1.15,2013-07-06 08:41:00,
2013-07-06 03:43:00,69.6,62.8,29.83,SE,139,3.0,5.0,79,0.00,,,0.00,0,Wunderground v.1.15,2013-07-06 08:43:00,
2013-07-06 03:45:00,69.5,62.7,29.83,SE,142,5.0,5.0,79,0.00,,,0.00,0,Wunderground v.1.15,2013-07-06 08:45:00,
2013-07-06 03:46:00,69.5,62.7,29.83,SSE,150,3.0,5.0,79,0.00,,,0.00,0,Wunderground v.1.15,2013-07-06 08:46:00,
2013-07-06 03:47:00,69.5,62.7,29.83,SE,144,3.0,7.0,79,0.00,,,0.00,0,Wunderground v.1.15,2013-07-06 08:47:00,
2013-07-06 03:49:00,69.5,62.7,29.83,SSE,150,5.0,7.0,79,0.00,,,0.00,0,Wunderground v.1.15,2013-07-06 08:49:00,
2013-07-06 03:50:00,69.5,62.7,29.83,SE,144,2.0,3.0,79,0.00,,,0.00,0,Wunderground v.1.15,2013-07-06 08:50:00,
2013-07-06 03:52:00,69.5,62.7,29.83,SE,138,4.0,4.0,79,0.00,,,0.00,0,Wunderground v.1.15,2013-07-06 08:52:00,
2013-07-06 03:53:00,69.5,62.7,29.83,SSE,150,1.0,4.0,79,0.00,,,0.00,0,Wunderground v.1.15,2013-07-06 08:53:00,
2013-07-06 03:55:00,69.4,62.6,29.83,SE,138,3.0,4.0,79,0.00,,,0.00,0,Wunderground v.1.15,2013-07-06 08:55:00,
2013-07-06 03:56:00,69.4,62.6,29.83,SSE,155,3.0,4.0,79,0.00,,,0.00,0,Wunderground v.1.15,2013-07-06 08:56:00,
2013-07-06 03:57:00,69.4,62.6,29.83,SSE,153,6.0,6.0,79,0.00,,,0.00,0,Wunderground v.1.15,2013-07-06 08:57:00,
2013-07-06 04:00:00,69.4,62.6,29.83,SE,144,6.0,6.0,79,0.00,,,0.00,0,Wunderground v.1.15,2013-07-06 09:00:00,
2013-07-06 04:02:00,69.4,62.6,29.83,SSE,148,2.0,6.0,79,0.00,,,0.00,0,Wunderground v.1.15,2013-07-06 09:02:00,
2013-07-06 04:03:00,69.4,62.6,29.83,SE,144,4.0,6.0,79,0.00,,,0.00,0,Wunderground v.1.15,2013-07-06 09:03:00,
2013-07-06 04:05:00,69.4,62.6,29.83,SSE,163,2.0,6.0,79,0.00,,,0.00,0,Wunderground v.1.15,2013-07-06 09:05:00,
2013-07-06 04:07:00,69.4,62.6,29.83,SSE,149,2.0,6.0,79,0.00,,,0.00,0,Wunderground v.1.15,2013-07-06 09:07:00,
2013-07-06 04:08:00,69.4,62.6,29.83,SE,138,3.0,6.0,79,0.00,,,0.00,0,Wunderground v.1.15,2013-07-06 09:08:00,
2013-07-06 04:11:00,69.4,62.6,29.83,SE,146,2.0,6.0,79,0.00,,,0.00,0,Wunderground v.1.15,2013-07-06 09:11:00,
2013-07-06 04:13:00,69.4,62.6,29.83,ESE,123,2.0,6.0,79,0.00,,,0.00,0,Wunderground v.1.15,2013-07-06 09:13:00,
2013-07-06 04:17:00,69.3,62.5,29.83,SE,145,6.0,6.0,79,0.00,,,0.00,0,Wunderground v.1.15,2013-07-06 09:17:00,
2013-07-06 04:18:00,69.3,62.5,29.83,South,169,2.0,6.0,79,0.00,,,0.00,0,Wunderground v.1.15,2013-07-06 09:18:00,
2013-07-06 04:19:00,69.2,62.4,29.83,SE,143,2.0,6.0,79,0.00,,,0.00,0,Wunderground v.1.15,2013-07-06 09:19:00,
2013-07-06 04:22:00,69.2,62.8,29.83,SSE,148,2.0,5.0,80,0.00,,,0.00,0,Wunderground v.1.15,2013-07-06 09:22:00,
2013-07-06 04:23:00,69.1,62.7,29.83,SSE,147,2.0,5.0,80,0.00,,,0.00,0,Wunderground v.1.15,2013-07-06 09:23:00,
2013-07-06 04:24:00,69.2,62.8,29.83,SE,130,4.0,7.0,80,0.00,,,0.00,0,Wunderground v.1.15,2013-07-06 09:24:00,
2013-07-06 04:28:00,69.1,62.7,29.83,SSE,149,3.0,8.0,80,0.00,,,0.00,0,Wunderground v.1.15,2013-07-06 09:28:00,
2013-07-06 04:29:00,69.1,62.7,29.83,SE,146,3.0,8.0,80,0.00,,,0.00,0,Wunderground v.1.15,2013-07-06 09:29:00,
2013-07-06 04:30:00,69.1,62.7,29.83,SE,140,2.0,3.0,80,0.00,,,0.00,0,Wunderground v.1.15,2013-07-06 09:30:00,
2013-07-06 04:31:00,69.1,62.7,29.83,SSE,157,2.0,4.0,80,0.00,,,0.00,0,Wunderground v.1.15,2013-07-06 09:31:00,
2013-07-06 04:35:00,69.2,62.8,29.83,SSE,150,2.0,5.0,80,0.00,,,0.00,0,Wunderground v.1.15,2013-07-06 09:35:00,
2013-07-06 04:36:00,69.2,62.4,29.83,SSE,158,3.0,5.0,79,0.00,,,0.00,0,Wunderground v.1.15,2013-07-06 09:36:00,
2013-07-06 04:37:00,69.2,62.4,29.83,SE,139,2.0,5.0,79,0.00,,,0.00,0,Wunderground v.1.15,2013-07-06 09:37:00,
2013-07-06 04:38:00,69.3,62.5,29.83,SE,132,1.0,5.0,79,0.00,,,0.00,0,Wunderground v.1.15,2013-07-06 09:38:00,
2013-07-06 04:41:00,69.2,62.4,29.83,SE,134,2.0,5.0,79,0.00,,,0.00,0,Wunderground v.1.15,2013-07-06 09:41:00,
2013-07-06 04:42:00,69.2,62.4,29.83,SE,144,1.0,5.0,79,0.00,,,0.00,0,Wunderground v.1.15,2013-07-06 09:42:00,
2013-07-06 04:45:00,69.0,62.6,29.83,SE,138,3.0,5.0,80,0.00,,,0.00,0,Wunderground v.1.15,2013-07-06 09:45:00,
2013-07-06 04:46:00,69.0,62.6,29.83,SSE,153,3.0,5.0,80,0.00,,,0.00,0,Wunderground v.1.15,2013-07-06 09:46:00,
2013-07-06 04:47:00,68.9,62.5,29.83,SE,140,2.0,5.0,80,0.00,,,0.00,0,Wunderground v.1.15,2013-07-06 09:47:00,
2013-07-06 04:48:00,68.9,62.5,29.83,SSE,149,3.0,6.0,80,0.00,,,0.00,0,Wunderground v.1.15,2013-07-06 09:48:00,
2013-07-06 04:50:00,68.9,62.5,29.83,SE,136,3.0,3.0,80,0.00,,,0.00,0,Wunderground v.1.15,2013-07-06 09:50:00,
2013-07-06 04:51:00,68.9,62.5,29.83,SE,142,3.0,7.0,80,0.00,,,0.00,0,Wunderground v.1.15,2013-07-06 09:51:00,
2013-07-06 04:53:00,68.9,62.5,29.83,SSE,155,1.0,8.0,80,0.00,,,0.00,0,Wunderground v.1.15,2013-07-06 09:53:00,
2013-07-06 04:54:00,69.0,62.6,29.83,SSE,151,2.0,8.0,80,0.00,,,0.00,0,Wunderground v.1.15,2013-07-06 09:54:00,
2013-07-06 04:55:00,69.0,62.6,29.83,SSE,159,4.0,8.0,80,0.00,,,0.00,0,Wunderground v.1.15,2013-07-06 09:55:00,
2013-07-06 04:56:00,69.0,62.6,29.83,ESE,111,5.0,8.0,80,0.00,,,0.00,0,Wunderground v.1.15,2013-07-06 09:56:00,
2013-07-06 04:57:00,69.0,62.6,29.83,SSE,154,2.0,8.0,80,0.00,,,0.00,0,Wunderground v.1.15,2013-07-06 09:57:00,
2013-07-06 04:59:00,69.0,62.6,29.83,SSE,155,3.0,8.0,80,0.00,,,0.00,0,Wunderground v.1.15,2013-07-06 09:59:00,
2013-07-06 05:00:00,69.0,62.6,29.83,SE,144,1.0,5.0,80,0.00,,,0.00,0,Wunderground v.1.15,2013-07-06 10:00:00,
2013-07-06 05:03:00,68.9,62.5,29.83,SSE,147,3.0,7.0,80,0.00,,,0.00,0,Wunderground v.1.15,2013-07-06 10:03:00,
2013-07-06 05:04:00,68.9,62.5,29.83,SE,134,1.0,7.0,80,0.00,,,0.00,0,Wunderground v.1.15,2013-07-06 10:04:00,
2013-07-06 05:05:00,68.9,62.5,29.83,SE,144,1.0,7.0,80,0.00,,,0.00,0,Wunderground v.1.15,2013-07-06 10:05:00,
2013-07-06 05:06:00,68.9,62.5,29.83,SE,142,0.0,7.0,80,0.00,,,0.00,0,Wunderground v.1.15,2013-07-06 10:06:00,
2013-07-06 05:08:00,68.8,62.4,29.83,SSE,148,2.0,7.0,80,0.00,,,0.00,0,Wunderground v.1.15,2013-07-06 10:08:00,
2013-07-06 05:10:00,68.7,62.3,29.83,South,176,5.0,7.0,80,0.00,,,0.00,0,Wunderground v.1.15,2013-07-06 10:10:00,
2013-07-06 05:12:00,68.8,62.4,29.83,SE,138,6.0,7.0,80,0.00,,,0.00,0,Wunderground v.1.15,2013-07-06 10:12:00,
2013-07-06 05:13:00,68.8,62.4,29.83,SSE,163,7.0,7.0,80,0.00,,,0.00,0,Wunderground v.1.15,2013-07-06 10:13:00,
2013-07-06 05:16:00,68.9,62.5,29.83,SSE,154,5.0,7.0,80,0.00,,,0.00,0,Wunderground v.1.15,2013-07-06 10:16:00,
2013-07-06 05:17:00,68.9,62.5,29.83,SSE,158,3.0,7.0,80,0.00,,,0.00,0,Wunderground v.1.15,2013-07-06 10:17:00,
2013-07-06 05:18:00,68.9,62.5,29.83,SE,146,7.0,7.0,80,0.00,,,0.00,0,Wunderground v.1.15,2013-07-06 10:18:00,
2013-07-06 05:20:00,69.0,62.6,29.83,SSE,155,3.0,4.0,80,0.00,,,0.00,0,Wunderground v.1.15,2013-07-06 10:20:00,
2013-07-06 05:21:00,69.0,62.2,29.83,SE,127,5.0,6.0,79,0.00,,,0.00,0,Wunderground v.1.15,2013-07-06 10:21:00,
2013-07-06 05:24:00,69.1,62.3,29.83,SSE,153,2.0,7.0,79,0.00,,,0.00,0,Wunderground v.1.15,2013-07-06 10:24:00,
2013-07-06 05:25:00,69.1,62.3,29.83,SE,138,2.0,7.0,79,0.00,,,0.00,0,Wunderground v.1.15,2013-07-06 10:25:00,
2013-07-06 05:26:00,69.0,62.2,29.83,South,179,3.0,7.0,79,0.00,,,0.00,0,Wunderground v.1.15,2013-07-06 10:26:00,
2013-07-06 05:27:00,69.0,62.2,29.83,SE,138,2.0,7.0,79,0.00,,,0.00,0,Wunderground v.1.15,2013-07-06 10:27:00,
2013-07-06 05:29:00,69.0,62.2,29.83,SSE,153,3.0,7.0,79,0.00,,,0.00,0,Wunderground v.1.15,2013-07-06 10:29:00,
2013-07-06 05:31:00,69.0,62.2,29.83,SSE,151,2.0,3.0,79,0.00,,,0.00,0,Wunderground v.1.15,2013-07-06 10:31:00,
2013-07-06 05:32:00,68.9,62.1,29.83,SE,138,3.0,3.0,79,0.00,,,0.00,0,Wunderground v.1.15,2013-07-06 10:32:00,
2013-07-06 05:34:00,68.9,62.5,29.83,South,171,2.0,5.0,80,0.00,,,0.00,0,Wunderground v.1.15,2013-07-06 10:34:00,
2013-07-06 05:35:00,68.9,62.5,29.83,SE,146,1.0,5.0,80,0.00,,,0.00,0,Wunderground v.1.15,2013-07-06 10:35:00,
2013-07-06 05:37:00,68.9,62.5,29.83,SSE,151,2.0,5.0,80,0.00,,,0.00,0,Wunderground v.1.15,2013-07-06 10:37:00,
2013-07-06 05:40:00,68.9,62.5,29.83,SE,146,4.0,4.0,80,0.00,,,0.00,0,Wunderground v.1.15,2013-07-06 10:40:00,
2013-07-06 05:42:00,68.8,62.4,29.83,SSE,159,1.0,5.0,80,0.00,,,0.00,0,Wunderground v.1.15,2013-07-06 10:42:00,
2013-07-06 05:43:00,68.9,62.1,29.83,SSE,155,4.0,5.0,79,0.00,,,0.00,0,Wunderground v.1.15,2013-07-06 10:43:00,
2013-07-06 05:44:00,68.9,62.1,29.83,SSE,153,4.0,5.0,79,0.00,,,0.00,0,Wunderground v.1.15,2013-07-06 10:44:00,
2013-07-06 05:46:00,69.0,62.2,29.83,SSE,168,3.0,8.0,79,0.00,,,0.00,0,Wunderground v.1.15,2013-07-06 10:46:00,
2013-07-06 05:47:00,69.0,62.2,29.83,SSE,159,2.0,8.0,79,0.00,,,0.00,5,Wunderground v.1.15,2013-07-06 10:47:00,
2013-07-06 05:49:00,69.0,62.2,29.83,South,171,3.0,8.0,79,0.00,,,0.00,5,Wunderground v.1.15,2013-07-06 10:49:00,
2013-07-06 05:50:00,68.9,62.1,29.83,SSE,163,1.0,4.0,79,0.00,,,0.00,5,Wunderground v.1.15,2013-07-06 10:50:00,
2013-07-06 05:51:00,68.8,62.0,29.83,SSE,165,3.0,4.0,79,0.00,,,0.00,7,Wunderground v.1.15,2013-07-06 10:51:00,
2013-07-06 05:53:00,68.8,62.4,29.83,SSE,164,4.0,4.0,80,0.00,,,0.00,7,Wunderground v.1.15,2013-07-06 10:53:00,
2013-07-06 05:55:00,68.8,62.4,29.83,SSE,156,2.0,5.0,80,0.00,,,0.00,9,Wunderground v.1.15,2013-07-06 10:55:00,
2013-07-06 05:57:00,68.8,62.4,29.83,SSE,149,3.0,6.0,80,0.00,,,0.00,11,Wunderground v.1.15,2013-07-06 10:57:00,
2013-07-06 05:59:00,68.7,62.3,29.83,SSE,157,3.0,6.0,80,0.00,,,0.00,11,Wunderground v.1.15,2013-07-06 10:59:00,
2013-07-06 06:01:00,68.8,62.4,29.84,SE,138,1.0,5.0,80,0.00,,,0.00,12,Wunderground v.1.15,2013-07-06 11:01:00,
2013-07-06 06:03:00,68.8,62.0,29.84,SSE,160,2.0,5.0,79,0.00,,,0.00,14,Wunderground v.1.15,2013-07-06 11:03:00,
2013-07-06 06:04:00,68.8,62.0,29.84,SE,142,0.0,5.0,79,0.00,,,0.00,16,Wunderground v.1.15,2013-07-06 11:04:00,
2013-07-06 06:06:00,68.8,62.0,29.84,SSE,154,4.0,5.0,79,0.00,,,0.00,16,Wunderground v.1.15,2013-07-06 11:06:00,
2013-07-06 06:09:00,68.9,62.1,29.84,SSE,163,3.0,7.0,79,0.00,,,0.00,19,Wunderground v.1.15,2013-07-06 11:09:00,
2013-07-06 06:10:00,68.9,62.1,29.84,SSE,162,2.0,3.0,79,0.00,,,0.00,19,Wunderground v.1.15,2013-07-06 11:10:00,
2013-07-06 06:12:00,69.0,62.2,29.84,SSE,157,2.0,5.0,79,0.00,,,0.00,21,Wunderground v.1.15,2013-07-06 11:12:00,
2013-07-06 06:13:00,69.0,62.2,29.84,SSE,159,4.0,5.0,79,0.00,,,0.00,23,Wunderground v.1.15,2013-07-06 11:13:00,
2013-07-06 06:14:00,69.0,62.2,29.84,SSE,148,4.0,5.0,79,0.00,,,0.00,23,Wunderground v.1.15,2013-07-06 11:14:00,
2013-07-06 06:17:00,69.1,61.9,29.84,SSE,159,4.0,9.0,78,0.00,,,0.00,25,Wunderground v.1.15,2013-07-06 11:17:00,
2013-07-06 06:18:00,69.2,62.0,29.84,SSE,163,5.0,9.0,78,0.00,,,0.00,28,Wunderground v.1.15,2013-07-06 11:18:00,
2013-07-06 06:20:00,69.3,62.1,29.84,SSE,160,2.0,5.0,78,0.00,,,0.00,30,Wunderground v.1.15,2013-07-06 11:20:00,
2013-07-06 06:22:00,69.3,62.1,29.84,South,170,3.0,7.0,78,0.00,,,0.00,33,Wunderground v.1.15,2013-07-06 11:22:00,
2013-07-06 06:24:00,69.4,62.2,29.84,SSE,150,2.0,7.0,78,0.00,,,0.00,33,Wunderground v.1.15,2013-07-06 11:24:00,
2013-07-06 06:26:00,69.4,62.2,29.84,SSE,148,4.0,7.0,78,0.00,,,0.00,37,Wunderground v.1.15,2013-07-06 11:26:00,
2013-07-06 06:27:00,69.3,62.1,29.84,SSE,164,6.0,7.0,78,0.00,,,0.00,37,Wunderground v.1.15,2013-07-06 11:27:00,
2013-07-06 06:28:00,69.4,62.2,29.84,SSE,153,5.0,7.0,78,0.00,,,0.00,39,Wunderground v.1.15,2013-07-06 11:28:00,
2013-07-06 06:30:00,69.4,62.2,29.84,SSE,167,5.0,5.0,78,0.00,,,0.00,42,Wunderground v.1.15,2013-07-06 11:30:00,
2013-07-06 06:31:00,69.4,62.2,29.84,SSE,161,6.0,8.0,78,0.00,,,0.00,44,Wunderground v.1.15,2013-07-06 11:31:00,
2013-07-06 06:32:00,69.4,62.2,29.84,SSE,167,2.0,8.0,78,0.00,,,0.00,44,Wunderground v.1.15,2013-07-06 11:32:00,
2013-07-06 06:33:00,69.4,62.2,29.84,SSE,155,6.0,8.0,78,0.00,,,0.00,47,Wunderground v.1.15,2013-07-06 11:33:00,
2013-07-06 06:37:00,69.6,62.4,29.84,SSE,158,4.0,8.0,78,0.00,,,0.00,53,Wunderground v.1.15,2013-07-06 11:37:00,
2013-07-06 06:38:00,69.6,62.1,29.84,SSE,168,3.0,8.0,77,0.00,,,0.00,56,Wunderground v.1.15,2013-07-06 11:38:00,
2013-07-06 06:40:00,69.7,62.2,29.84,SE,140,4.0,4.0,77,0.00,,,0.00,60,Wunderground v.1.15,2013-07-06 11:40:00,
2013-07-06 06:41:00,69.8,62.3,29.84,SSE,148,5.0,6.0,77,0.00,,,0.00,62,Wunderground v.1.15,2013-07-06 11:41:00,
2013-07-06 06:43:00,69.8,62.3,29.84,SSE,161,4.0,6.0,77,0.00,,,0.00,65,Wunderground v.1.15,2013-07-06 11:43:00,
2013-07-06 06:44:00,69.8,62.3,29.84,SSE,149,5.0,6.0,77,0.00,,,0.00,67,Wunderground v.1.15,2013-07-06 11:44:00,
2013-07-06 06:45:00,69.9,62.4,29.84,SSE,152,4.0,8.0,77,0.00,,,0.00,70,Wunderground v.1.15,2013-07-06 11:45:00,
2013-07-06 06:47:00,69.9,62.4,29.84,South,170,3.0,8.0,77,0.00,,,0.00,76,Wunderground v.1.15,2013-07-06 11:47:00,
2013-07-06 06:48:00,69.9,62.4,29.84,SSE,159,4.0,8.0,77,0.00,,,0.00,79,Wunderground v.1.15,2013-07-06 11:48:00,
2013-07-06 06:49:00,69.9,62.4,29.84,South,176,5.0,8.0,77,0.00,,,0.00,81,Wunderground v.1.15,2013-07-06 11:49:00,
2013-07-06 06:50:00,69.9,62.4,29.84,SE,146,5.0,5.0,77,0.00,,,0.00,83,Wunderground v.1.15,2013-07-06 11:50:00,
2013-07-06 06:53:00,69.9,62.4,29.84,SSE,166,2.0,5.0,77,0.00,,,0.00,91,Wunderground v.1.15,2013-07-06 11:53:00,
2013-07-06 06:54:00,69.9,62.4,29.84,South,171,3.0,5.0,77,0.00,,,0.00,91,Wunderground v.1.15,2013-07-06 11:54:00,
2013-07-06 06:55:00,69.9,62.4,29.84,SSE,163,2.0,5.0,77,0.00,,,0.00,95,Wunderground v.1.15,2013-07-06 11:55:00,
2013-07-06 06:56:00,69.9,62.7,29.84,SSE,165,3.0,5.0,78,0.00,,,0.00,97,Wunderground v.1.15,2013-07-06 11:56:00,
2013-07-06 06:58:00,70.0,62.5,29.84,South,187,1.0,5.0,77,0.00,,,0.00,102,Wunderground v.1.15,2013-07-06 11:58:00,
2013-07-06 06:59:00,70.0,62.5,29.84,SSE,162,1.0,5.0,77,0.00,,,0.00,104,Wunderground v.1.15,2013-07-06 11:59:00,
2013-07-06 07:01:00,70.1,62.6,29.84,SSE,159,2.0,5.0,77,0.00,,,0.00,105,Wunderground v.1.15,2013-07-06 12:01:00,
2013-07-06 07:02:00,70.1,62.6,29.84,SE,144,3.0,5.0,77,0.00,,,0.00,111,Wunderground v.1.15,2013-07-06 12:02:00,
2013-07-06 07:05:00,70.2,62.6,29.84,SSE,154,4.0,6.0,77,0.00,,,0.00,120,Wunderground v.1.15,2013-07-06 12:05:00,
2013-07-06 07:06:00,70.3,62.7,29.84,SSE,153,4.0,6.0,77,0.00,,,0.00,121,Wunderground v.1.15,2013-07-06 12:06:00,
2013-07-06 07:08:00,70.4,62.8,29.84,SSE,153,4.0,6.0,77,0.00,,,0.00,128,Wunderground v.1.15,2013-07-06 12:08:00,
2013-07-06 07:11:00,70.4,62.8,29.84,SSE,158,2.0,5.0,77,0.00,,,0.00,137,Wunderground v.1.15,2013-07-06 12:11:00,
2013-07-06 07:12:00,70.5,62.9,29.84,SSE,154,3.0,8.0,77,0.00,,,0.00,139,Wunderground v.1.15,2013-07-06 12:12:00,
2013-07-06 07:14:00,70.6,63.0,29.84,SSE,150,2.0,8.0,77,0.00,,,0.00,146,Wunderground v.1.15,2013-07-06 12:14:00,
2013-07-06 07:16:00,70.6,63.0,29.84,South,180,3.0,8.0,77,0.00,,,0.00,149,Wunderground v.1.15,2013-07-06 12:16:00,
2013-07-06 07:17:00,70.7,63.1,29.84,SSE,161,5.0,8.0,77,0.00,,,0.00,155,Wunderground v.1.15,2013-07-06 12:17:00,
2013-07-06 07:20:00,70.8,63.2,29.85,SSE,161,3.0,4.0,77,0.00,,,0.00,163,Wunderground v.1.15,2013-07-06 12:20:00,
2013-07-06 07:21:00,70.9,63.0,29.84,SSE,165,2.0,4.0,76,0.00,,,0.00,167,Wunderground v.1.15,2013-07-06 12:21:00,
2013-07-06 07:23:00,70.9,63.0,29.84,SSE,153,3.0,4.0,76,0.00,,,0.00,172,Wunderground v.1.15,2013-07-06 12:23:00,
2013-07-06 07:24:00,71.0,63.1,29.84,SSE,158,2.0,7.0,76,0.00,,,0.00,172,Wunderground v.1.15,2013-07-06 12:24:00,
2013-07-06 07:28:00,71.2,63.2,29.84,SSE,155,3.0,7.0,76,0.00,,,0.00,186,Wunderground v.1.15,2013-07-06 12:28:00,
2013-07-06 07:29:00,71.2,63.2,29.84,SSE,166,3.0,7.0,76,0.00,,,0.00,190,Wunderground v.1.15,2013-07-06 12:29:00,
2013-07-06 07:30:00,71.2,63.2,29.84,SE,144,3.0,3.0,76,0.00,,,0.00,190,Wunderground v.1.15,2013-07-06 12:30:00,
2013-07-06 07:34:00,71.4,63.4,29.84,SSE,148,2.0,7.0,76,0.00,,,0.00,200,Wunderground v.1.15,2013-07-06 12:34:00,
2013-07-06 07:35:00,71.5,63.5,29.84,South,190,4.0,7.0,76,0.00,,,0.00,206,Wunderground v.1.15,2013-07-06 12:35:00,
2013-07-06 07:36:00,71.5,63.2,29.84,SSE,155,3.0,7.0,75,0.00,,,0.00,206,Wunderground v.1.15,2013-07-06 12:36:00,
2013-07-06 07:37:00,71.5,63.2,29.84,SSE,160,5.0,7.0,75,0.00,,,0.00,209,Wunderground v.1.15,2013-07-06 12:37:00,
2013-07-06 07:40:00,71.7,63.4,29.84,SSE,155,5.0,5.0,75,0.00,,,0.00,216,Wunderground v.1.15,2013-07-06 12:40:00,
2013-07-06 07:41:00,71.7,63.4,29.84,SSE,165,5.0,7.0,75,0.00,,,0.00,220,Wunderground v.1.15,2013-07-06 12:41:00,
2013-07-06 07:42:00,71.8,63.4,29.84,South,174,4.0,7.0,75,0.00,,,0.00,221,Wunderground v.1.15,2013-07-06 12:42:00,
2013-07-06 07:46:00,71.9,63.2,29.84,SSE,168,6.0,10.0,74,0.00,,,0.00,234,Wunderground v.1.15,2013-07-06 12:46:00,
2013-07-06 07:47:00,72.0,63.3,29.84,SE,134,4.0,10.0,74,0.00,,,0.00,237,Wunderground v.1.15,2013-07-06 12:47:00,
2013-07-06 07:48:00,72.1,63.7,29.84,SSE,153,7.0,10.0,75,0.00,,,0.00,241,Wunderground v.1.15,2013-07-06 12:48:00,
2013-07-06 07:52:00,72.3,63.5,29.84,SSE,150,6.0,8.0,74,0.00,,,0.00,253,Wunderground v.1.15,2013-07-06 12:52:00,
2013-07-06 07:54:00,72.3,63.5,29.84,South,170,4.0,10.0,74,0.00,,,0.00,258,Wunderground v.1.15,2013-07-06 12:54:00,
2013-07-06 07:57:00,72.5,63.7,29.84,SSE,153,8.0,10.0,74,0.00,,,0.00,269,Wunderground v.1.15,2013-07-06 12:57:00,
2013-07-06 07:59:00,72.6,63.8,29.84,SSE,159,2.0,10.0,74,0.00,,,0.00,274,Wunderground v.1.15,2013-07-06 12:59:00,
2013-07-06 08:00:00,72.6,63.8,29.84,SE,140,7.0,7.0,74,0.00,,,0.00,274,Wunderground v.1.15,2013-07-06 13:00:00,
2013-07-06 08:04:00,72.8,64.0,29.84,South,175,6.0,9.0,74,0.00,,,0.00,285,Wunderground v.1.15,2013-07-06 13:04:00,
2013-07-06 08:05:00,73.0,64.2,29.84,South,175,7.0,9.0,74,0.00,,,0.00,288,Wunderground v.1.15,2013-07-06 13:05:00,
2013-07-06 08:06:00,73.0,63.8,29.84,SSE,153,5.0,9.0,73,0.00,,,0.00,288,Wunderground v.1.15,2013-07-06 13:06:00,
2013-07-06 08:10:00,73.2,64.0,29.84,SSE,153,7.0,7.0,73,0.00,,,0.00,301,Wunderground v.1.15,2013-07-06 13:10:00,
2013-07-06 08:11:00,73.3,64.1,29.84,South,180,4.0,7.0,73,0.00,,,0.00,301,Wunderground v.1.15,2013-07-06 13:11:00,
2013-07-06 08:12:00,73.3,64.1,29.84,SSE,155,4.0,7.0,73,0.00,,,0.00,308,Wunderground v.1.15,2013-07-06 13:12:00,
2013-07-06 08:16:00,73.6,64.4,29.84,SSE,165,1.0,7.0,73,0.00,,,0.00,323,Wunderground v.1.15,2013-07-06 13:16:00,
2013-07-06 08:17:00,73.6,64.4,29.84,SSE,159,5.0,7.0,73,0.00,,,0.00,323,Wunderground v.1.15,2013-07-06 13:17:00,
2013-07-06 08:19:00,73.8,64.2,29.84,SSE,157,9.0,9.0,72,0.00,,,0.00,330,Wunderground v.1.15,2013-07-06 13:19:00,
2013-07-06 08:22:00,73.9,64.3,29.84,SSE,153,6.0,9.0,72,0.00,,,0.00,343,Wunderground v.1.15,2013-07-06 13:22:00,
2013-07-06 08:23:00,73.9,64.3,29.84,SE,135,5.0,9.0,72,0.00,,,0.00,343,Wunderground v.1.15,2013-07-06 13:23:00,
2013-07-06 08:24:00,74.1,64.5,29.84,South,172,4.0,9.0,72,0.00,,,0.00,348,Wunderground v.1.15,2013-07-06 13:24:00,
2013-07-06 08:25:00,74.1,64.5,29.84,South,172,5.0,9.0,72,0.00,,,0.00,348,Wunderground v.1.15,2013-07-06 13:25:00,
2013-07-06 08:26:00,74.2,64.6,29.84,SSE,163,5.0,9.0,72,0.00,,,0.00,352,Wunderground v.1.15,2013-07-06 13:26:00,
2013-07-06 08:28:00,74.3,64.7,29.84,SSE,157,4.0,9.0,72,0.00,,,0.00,359,Wunderground v.1.15,2013-07-06 13:28:00,
2013-07-06 08:29:00,74.4,64.8,29.84,SSE,167,4.0,9.0,72,0.00,,,0.00,360,Wunderground v.1.15,2013-07-06 13:29:00,
2013-07-06 08:31:00,74.5,64.5,29.83,SSE,165,5.0,5.0,71,0.00,,,0.00,366,Wunderground v.1.15,2013-07-06 13:31:00,
2013-07-06 08:32:00,74.6,64.6,29.83,SSE,157,5.0,5.0,71,0.00,,,0.00,371,Wunderground v.1.15,2013-07-06 13:32:00,
2013-07-06 08:33:00,74.7,64.7,29.83,SSE,157,4.0,7.0,71,0.00,,,0.00,373,Wunderground v.1.15,2013-07-06 13:33:00,
2013-07-06 08:36:00,74.9,64.9,29.83,SSE,160,5.0,8.0,71,0.00,,,0.00,383,Wunderground v.1.15,2013-07-06 13:36:00,
2013-07-06 08:38:00,75.0,64.5,29.83,SSE,168,4.0,8.0,70,0.00,,,0.00,388,Wunderground v.1.15,2013-07-06 13:38:00,
2013-07-06 08:39:00,75.0,64.5,29.83,South,173,7.0,9.0,70,0.00,,,0.00,392,Wunderground v.1.15,2013-07-06 13:39:00,
2013-07-06 08:41:00,75.2,65.1,29.83,South,172,2.0,7.0,71,0.00,,,0.00,397,Wunderground v.1.15,2013-07-06 13:41:00,
2013-07-06 08:42:00,75.3,65.2,29.83,SSE,155,3.0,7.0,71,0.00,,,0.00,403,Wunderground v.1.15,2013-07-06 13:42:00,
2013-07-06 08:44:00,75.4,64.9,29.83,SSE,159,3.0,8.0,70,0.00,,,0.00,408,Wunderground v.1.15,2013-07-06 13:44:00,
2013-07-06 08:48:00,76.0,65.5,29.83,SSE,166,2.0,9.0,70,0.00,,,0.00,424,Wunderground v.1.15,2013-07-06 13:48:00,
2013-07-06 08:49:00,76.2,65.3,29.83,South,188,3.0,9.0,69,0.00,,,0.00,425,Wunderground v.1.15,2013-07-06 13:49:00,
2013-07-06 08:50:00,76.3,65.4,29.83,South,182,4.0,7.0,69,0.00,,,0.00,429,Wunderground v.1.15,2013-07-06 13:50:00,
2013-07-06 08:51:00,76.4,65.1,29.83,South,174,1.0,7.0,68,0.00,,,0.00,429,Wunderground v.1.15,2013-07-06 13:51:00,
2013-07-06 08:54:00,76.7,64.9,29.83,South,176,4.0,9.0,67,0.00,,,0.00,438,Wunderground v.1.15,2013-07-06 13:54:00,
2013-07-06 08:55:00,76.7,65.3,29.83,SSE,153,3.0,9.0,68,0.00,,,0.00,443,Wunderground v.1.15,2013-07-06 13:55:00,
2013-07-06 08:56:00,76.8,65.4,29.83,South,172,7.0,9.0,68,0.00,,,0.00,446,Wunderground v.1.15,2013-07-06 13:56:00,
2013-07-06 08:57:00,76.8,65.4,29.83,SSE,151,7.0,9.0,68,0.00,,,0.00,450,Wunderground v.1.15,2013-07-06 13:57:00,
2013-07-06 08:59:00,76.9,65.1,29.83,South,172,3.0,9.0,67,0.00,,,0.00,455,Wunderground v.1.15,2013-07-06 13:59:00,
2013-07-06 09:00:00,77.0,65.2,29.83,South,173,3.0,5.0,67,0.00,,,0.00,459,Wunderground v.1.15,2013-07-06 14:00:00,
2013-07-06 09:01:00,77.1,65.3,29.83,SSE,165,0.0,7.0,67,0.00,,,0.00,464,Wunderground v.1.15,2013-07-06 14:01:00,
2013-07-06 09:03:00,77.2,65.8,29.82,SSE,162,3.0,7.0,68,0.00,,,0.00,466,Wunderground v.1.15,2013-07-06 14:03:00,
2013-07-06 09:06:00,77.5,65.2,29.82,South,169,7.0,9.0,66,0.00,,,0.00,478,Wunderground v.1.15,2013-07-06 14:06:00,
2013-07-06 09:07:00,77.5,65.2,29.82,SSE,155,7.0,9.0,66,0.00,,,0.00,480,Wunderground v.1.15,2013-07-06 14:07:00,
2013-07-06 09:08:00,77.6,65.8,29.82,South,175,5.0,9.0,67,0.00,,,0.00,483,Wunderground v.1.15,2013-07-06 14:08:00,
2013-07-06 09:09:00,77.6,65.8,29.82,SSE,161,3.0,9.0,67,0.00,,,0.00,483,Wunderground v.1.15,2013-07-06 14:09:00,
2013-07-06 09:12:00,77.9,65.6,29.82,SSE,167,10.0,10.0,66,0.00,,,0.00,494,Wunderground v.1.15,2013-07-06 14:12:00,
2013-07-06 09:13:00,78.0,65.7,29.82,South,172,3.0,10.0,66,0.00,,,0.00,497,Wunderground v.1.15,2013-07-06 14:13:00,
2013-07-06 09:14:00,78.1,65.8,29.82,SSE,167,4.0,10.0,66,0.00,,,0.00,499,Wunderground v.1.15,2013-07-06 14:14:00,
2013-07-06 09:17:00,78.3,66.0,29.82,South,181,3.0,10.0,66,0.00,,,0.00,510,Wunderground v.1.15,2013-07-06 14:17:00,
2013-07-06 09:19:00,78.6,66.7,29.82,SSE,167,9.0,10.0,67,0.00,,,0.00,515,Wunderground v.1.15,2013-07-06 14:19:00,
2013-07-06 09:20:00,78.7,65.5,29.82,SSE,162,3.0,10.0,64,0.00,,,0.00,519,Wunderground v.1.15,2013-07-06 14:20:00,
2013-07-06 09:21:00,78.8,66.0,29.82,SSE,147,4.0,5.0,65,0.00,,,0.00,520,Wunderground v.1.15,2013-07-06 14:21:00,
2013-07-06 09:22:00,78.8,65.6,29.82,South,169,4.0,10.0,64,0.00,,,0.00,526,Wunderground v.1.15,2013-07-06 14:22:00,
2013-07-06 09:24:00,78.8,66.0,29.82,SSE,163,4.0,10.0,65,0.00,,,0.00,531,Wunderground v.1.15,2013-07-06 14:24:00,
2013-07-06 09:25:00,79.0,65.8,29.82,SE,132,10.0,10.0,64,0.00,,,0.00,534,Wunderground v.1.15,2013-07-06 14:25:00,
2013-07-06 09:26:00,79.0,65.3,29.82,South,180,4.0,10.0,63,0.00,,,0.00,536,Wunderground v.1.15,2013-07-06 14:26:00,
2013-07-06 09:28:00,79.1,66.3,29.82,South,183,4.0,10.0,65,0.00,,,0.00,541,Wunderground v.1.15,2013-07-06 14:28:00,
2013-07-06 09:29:00,79.2,66.4,29.82,South,184,8.0,10.0,65,0.00,,,0.00,547,Wunderground v.1.15,2013-07-06 14:29:00,
2013-07-06 09:31:00,79.2,66.0,29.82,SE,140,7.0,9.0,64,0.00,,,0.00,550,Wunderground v.1.15,2013-07-06 14:31:00,
2013-07-06 09:34:00,79.1,65.4,29.82,South,174,7.0,10.0,63,0.00,,,0.00,554,Wunderground v.1.15,2013-07-06 14:34:00,
2013-07-06 09:36:00,79.2,66.4,29.82,SW,214,5.0,10.0,65,0.00,,,0.00,568,Wunderground v.1.15,2013-07-06 14:36:00,
2013-07-06 09:37:00,79.3,66.5,29.82,SSW,196,3.0,10.0,65,0.00,,,0.00,568,Wunderground v.1.15,2013-07-06 14:37:00,
2013-07-06 09:39:00,79.6,66.3,29.82,South,188,3.0,10.0,64,0.00,,,0.00,571,Wunderground v.1.15,2013-07-06 14:39:00,
2013-07-06 09:40:00,79.9,66.2,29.81,South,171,6.0,6.0,63,0.00,,,0.00,575,Wunderground v.1.15,2013-07-06 14:40:00,
2013-07-06 09:42:00,80.0,65.8,29.82,SSW,194,3.0,8.0,62,0.00,,,0.00,580,Wunderground v.1.15,2013-07-06 14:42:00,
2013-07-06 09:43:00,80.1,65.9,29.82,SSE,163,7.0,8.0,62,0.00,,,0.00,582,Wunderground v.1.15,2013-07-06 14:43:00,
2013-07-06 09:46:00,80.5,66.3,29.81,South,182,5.0,12.0,62,0.00,,,0.00,592,Wunderground v.1.15,2013-07-06 14:46:00,
2013-07-06 09:47:00,80.5,65.3,29.81,SW,217,7.0,12.0,60,0.00,,,0.00,598,Wunderground v.1.15,2013-07-06 14:47:00,
2013-07-06 09:48:00,80.6,65.4,29.82,South,172,3.0,12.0,60,0.00,,,0.00,598,Wunderground v.1.15,2013-07-06 14:48:00,
2013-07-06 09:50:00,80.9,65.7,29.82,SSW,204,7.0,12.0,60,0.00,,,0.00,601,Wunderground v.1.15,2013-07-06 14:50:00,
2013-07-06 09:51:00,81.1,66.4,29.81,SE,142,10.0,10.0,61,0.00,,,0.00,606,Wunderground v.1.15,2013-07-06 14:51:00,
2013-07-06 09:53:00,81.4,67.1,29.81,South,176,6.0,10.0,62,0.00,,,0.00,612,Wunderground v.1.15,2013-07-06 14:53:00,
2013-07-06 09:54:00,81.5,65.8,29.81,SSE,163,8.0,10.0,59,0.00,,,0.00,613,Wunderground v.1.15,2013-07-06 14:54:00,
2013-07-06 09:55:00,81.4,66.2,29.81,South,173,6.0,10.0,60,0.00,,,0.00,619,Wunderground v.1.15,2013-07-06 14:55:00,
2013-07-06 09:56:00,81.5,66.3,29.81,South,184,7.0,10.0,60,0.00,,,0.00,619,Wunderground v.1.15,2013-07-06 14:56:00,
2013-07-06 09:58:00,81.4,66.2,29.81,SSW,192,7.0,10.0,60,0.00,,,0.00,624,Wunderground v.1.15,2013-07-06 14:58:00,
2013-07-06 09:59:00,81.5,66.3,29.81,SSE,150,6.0,10.0,60,0.00,,,0.00,628,Wunderground v.1.15,2013-07-06 14:59:00,
2013-07-06 10:00:00,81.6,66.8,29.81,South,187,4.0,6.0,61,0.00,,,0.00,629,Wunderground v.1.15,2013-07-06 15:00:00,
2013-07-06 10:01:00,81.8,66.6,29.81,South,181,5.0,7.0,60,0.00,,,0.00,629,Wunderground v.1.15,2013-07-06 15:01:00,
2013-07-06 10:02:00,81.8,66.1,29.81,SSW,194,3.0,7.0,59,0.00,,,0.00,633,Wunderground v.1.15,2013-07-06 15:02:00,
2013-07-06 10:04:00,81.9,65.7,29.81,South,180,6.0,8.0,58,0.00,,,0.00,638,Wunderground v.1.15,2013-07-06 15:04:00,
2013-07-06 10:05:00,81.9,65.7,29.81,South,190,10.0,10.0,58,0.00,,,0.00,643,Wunderground v.1.15,2013-07-06 15:05:00,
2013-07-06 10:06:00,82.0,65.8,29.81,SSW,195,7.0,10.0,58,0.00,,,0.00,643,Wunderground v.1.15,2013-07-06 15:06:00,
2013-07-06 10:07:00,82.0,66.3,29.81,South,171,10.0,10.0,59,0.00,,,0.00,647,Wunderground v.1.15,2013-07-06 15:07:00,
2013-07-06 10:08:00,82.0,66.3,29.81,SSE,164,8.0,10.0,59,0.00,,,0.00,649,Wunderground v.1.15,2013-07-06 15:08:00,
2013-07-06 10:09:00,82.2,66.4,29.81,South,185,3.0,10.0,59,0.00,,,0.00,652,Wunderground v.1.15,2013-07-06 15:09:00,
2013-07-06 10:10:00,82.3,66.0,29.81,South,179,3.0,6.0,58,0.00,,,0.00,652,Wunderground v.1.15,2013-07-06 15:10:00,
2013-07-06 10:12:00,82.5,66.2,29.81,SSW,196,7.0,10.0,58,0.00,,,0.00,657,Wunderground v.1.15,2013-07-06 15:12:00,
2013-07-06 10:13:00,82.5,65.7,29.81,SSW,194,4.0,10.0,57,0.00,,,0.00,664,Wunderground v.1.15,2013-07-06 15:13:00,
2013-07-06 10:14:00,82.6,65.8,29.81,SSE,159,6.0,11.0,57,0.00,,,0.00,668,Wunderground v.1.15,2013-07-06 15:14:00,
2013-07-06 10:16:00,82.5,66.2,29.81,SSW,195,7.0,11.0,58,0.00,,,0.00,671,Wunderground v.1.15,2013-07-06 15:16:00,
2013-07-06 10:18:00,82.6,66.3,29.81,SSW,201,7.0,11.0,58,0.00,,,0.00,673,Wunderground v.1.15,2013-07-06 15:18:00,
2013-07-06 10:20:00,82.8,67.0,29.81,SSW,202,4.0,6.0,59,0.00,,,0.00,679,Wunderground v.1.15,2013-07-06 15:20:00,
2013-07-06 10:22:00,82.9,66.6,29.81,SSE,149,6.0,9.0,58,0.00,,,0.00,684,Wunderground v.1.15,2013-07-06 15:22:00,
2013-07-06 10:23:00,83.0,66.7,29.81,SSE,154,6.0,9.0,58,0.00,,,0.00,689,Wunderground v.1.15,2013-07-06 15:23:00,
2013-07-06 10:25:00,83.3,67.0,29.81,SSE,152,8.0,9.0,58,0.00,,,0.00,691,Wunderground v.1.15,2013-07-06 15:25:00,
2013-07-06 10:27:00,83.4,66.1,29.81,SSE,157,10.0,10.0,56,0.00,,,0.00,698,Wunderground v.1.15,2013-07-06 15:27:00,
2013-07-06 10:28:00,83.4,67.6,29.81,SW,224,8.0,10.0,59,0.00,,,0.00,701,Wunderground v.1.15,2013-07-06 15:28:00,
2013-07-06 10:30:00,83.6,66.2,29.80,South,179,6.0,8.0,56,0.00,,,0.00,710,Wunderground v.1.15,2013-07-06 15:30:00,
2013-07-06 10:31:00,83.6,66.8,29.81,SW,215,10.0,10.0,57,0.00,,,0.00,710,Wunderground v.1.15,2013-07-06 15:31:00,
2013-07-06 10:33:00,83.6,66.8,29.80,South,184,10.0,10.0,57,0.00,,,0.00,717,Wunderground v.1.15,2013-07-06 15:33:00,
2013-07-06 10:34:00,83.7,66.8,29.80,SE,146,10.0,10.0,57,0.00,,,0.00,717,Wunderground v.1.15,2013-07-06 15:34:00,
2013-07-06 10:36:00,83.7,66.8,29.81,South,185,5.0,10.0,57,0.00,,,0.00,721,Wunderground v.1.15,2013-07-06 15:36:00,
2013-07-06 10:39:00,84.0,67.1,29.81,South,178,2.0,10.0,57,0.00,,,0.00,731,Wunderground v.1.15,2013-07-06 15:39:00,
2013-07-06 10:40:00,84.0,67.1,29.80,SSE,165,4.0,7.0,57,0.00,,,0.00,735,Wunderground v.1.15,2013-07-06 15:40:00,
2013-07-06 10:41:00,84.1,67.2,29.80,South,171,6.0,11.0,57,0.00,,,0.00,731,Wunderground v.1.15,2013-07-06 15:41:00,
2013-07-06 10:43:00,84.1,66.7,29.81,SSW,196,7.0,11.0,56,0.00,,,0.00,738,Wunderground v.1.15,2013-07-06 15:43:00,
2013-07-06 10:46:00,84.3,67.4,29.81,South,184,5.0,11.0,57,0.00,,,0.00,745,Wunderground v.1.15,2013-07-06 15:46:00,
2013-07-06 10:47:00,84.5,67.1,29.81,SSE,161,6.0,11.0,56,0.00,,,0.00,752,Wunderground v.1.15,2013-07-06 15:47:00,
2013-07-06 10:48:00,84.5,67.1,29.81,SE,138,9.0,11.0,56,0.00,,,0.00,752,Wunderground v.1.15,2013-07-06 15:48:00,
2013-07-06 10:53:00,84.6,67.2,29.80,South,187,8.0,11.0,56,0.00,,,0.00,761,Wunderground v.1.15,2013-07-06 15:53:00,
2013-07-06 10:54:00,84.7,67.3,29.80,South,173,8.0,11.0,56,0.00,,,0.00,761,Wunderground v.1.15,2013-07-06 15:54:00,
2013-07-06 10:56:00,84.7,67.3,29.80,SSE,161,6.0,11.0,56,0.00,,,0.00,768,Wunderground v.1.15,2013-07-06 15:56:00,
2013-07-06 10:59:00,84.8,66.8,29.80,SSE,161,6.0,11.0,55,0.00,,,0.00,772,Wunderground v.1.15,2013-07-06 15:59:00,
2013-07-06 11:01:00,84.9,68.0,29.80,SSE,153,6.0,8.0,57,0.00,,,0.00,772,Wunderground v.1.15,2013-07-06 16:01:00,
2013-07-06 11:04:00,85.0,67.0,29.80,South,169,6.0,10.0,55,0.00,,,0.00,749,Wunderground v.1.15,2013-07-06 16:04:00,
2013-07-06 11:05:00,85.0,67.0,29.80,SSW,209,3.0,10.0,55,0.00,,,0.00,775,Wunderground v.1.15,2013-07-06 16:05:00,
2013-07-06 11:07:00,85.2,67.7,29.80,SSW,210,5.0,10.0,56,0.00,,,0.00,775,Wunderground v.1.15,2013-07-06 16:07:00,
2013-07-06 11:10:00,85.3,67.8,29.81,SSE,163,7.0,7.0,56,0.00,,,0.00,789,Wunderground v.1.15,2013-07-06 16:10:00,
2013-07-06 11:11:00,85.3,66.8,29.81,SW,223,8.0,8.0,54,0.00,,,0.00,791,Wunderground v.1.15,2013-07-06 16:11:00,
2013-07-06 11:14:00,85.4,68.4,29.80,South,173,5.0,11.0,57,0.00,,,0.00,800,Wunderground v.1.15,2013-07-06 16:14:00,
2013-07-06 11:15:00,85.5,68.5,29.80,SSE,157,10.0,11.0,57,0.00,,,0.00,800,Wunderground v.1.15,2013-07-06 16:15:00,
2013-07-06 11:16:00,85.7,67.7,29.80,South,184,8.0,11.0,55,0.00,,,0.00,809,Wunderground v.1.15,2013-07-06 16:16:00,
2013-07-06 11:17:00,85.7,67.7,29.80,South,174,12.0,12.0,55,0.00,,,0.00,803,Wunderground v.1.15,2013-07-06 16:17:00,
2013-07-06 11:20:00,85.8,67.8,29.80,SSE,161,8.0,8.0,55,0.00,,,0.00,810,Wunderground v.1.15,2013-07-06 16:20:00,
2013-07-06 11:23:00,85.9,67.3,29.80,SSW,200,9.0,10.0,54,0.00,,,0.00,816,Wunderground v.1.15,2013-07-06 16:23:00,
2013-07-06 11:26:00,86.0,68.0,29.80,SSW,202,5.0,13.0,55,0.00,,,0.00,824,Wunderground v.1.15,2013-07-06 16:26:00,
2013-07-06 11:27:00,86.1,68.6,29.80,SE,129,3.0,13.0,56,0.00,,,0.00,821,Wunderground v.1.15,2013-07-06 16:27:00,
2013-07-06 11:29:00,86.5,68.4,29.80,SSE,151,6.0,13.0,55,0.00,,,0.00,823,Wunderground v.1.15,2013-07-06 16:29:00,
2013-07-06 11:31:00,86.5,67.9,29.80,SSE,159,5.0,9.0,54,0.00,,,0.00,826,Wunderground v.1.15,2013-07-06 16:31:00,
2013-07-06 11:32:00,86.5,68.4,29.80,South,182,10.0,10.0,55,0.00,,,0.00,826,Wunderground v.1.15,2013-07-06 16:32:00,
2013-07-06 11:37:00,86.6,68.0,29.80,South,175,8.0,10.0,54,0.00,,,0.00,833,Wunderground v.1.15,2013-07-06 16:37:00,
2013-07-06 11:38:00,86.6,68.5,29.80,SSE,163,8.0,10.0,55,0.00,,,0.00,837,Wunderground v.1.15,2013-07-06 16:38:00,
2013-07-06 11:42:00,86.6,68.0,29.79,South,169,8.0,11.0,54,0.00,,,0.00,837,Wunderground v.1.15,2013-07-06 16:42:00,
2013-07-06 11:43:00,86.6,68.0,29.79,SSE,161,6.0,11.0,54,0.00,,,0.00,837,Wunderground v.1.15,2013-07-06 16:43:00,
2013-07-06 11:44:00,86.7,67.5,29.79,SSW,211,8.0,11.0,53,0.00,,,0.00,849,Wunderground v.1.15,2013-07-06 16:44:00,
2013-07-06 11:48:00,87.1,69.5,29.79,SSE,160,8.0,11.0,56,0.00,,,0.00,858,Wunderground v.1.15,2013-07-06 16:48:00,
2013-07-06 11:49:00,87.3,68.1,29.79,SSE,165,9.0,14.0,53,0.00,,,0.00,860,Wunderground v.1.15,2013-07-06 16:49:00,
2013-07-06 11:53:00,87.1,68.4,29.79,South,176,9.0,12.0,54,0.00,,,0.00,863,Wunderground v.1.15,2013-07-06 16:53:00,
2013-07-06 11:54:00,86.9,68.8,29.79,SE,130,3.0,15.0,55,0.00,,,0.00,863,Wunderground v.1.15,2013-07-06 16:54:00,
2013-07-06 11:55:00,86.9,68.8,29.79,SSE,159,5.0,15.0,55,0.00,,,0.00,865,Wunderground v.1.15,2013-07-06 16:55:00,
2013-07-06 12:01:00,87.3,68.1,29.79,SSW,208,9.0,9.0,53,0.00,,,0.00,870,Wunderground v.1.15,2013-07-06 17:01:00,
2013-07-06 12:02:00,87.4,68.7,29.79,SSE,161,8.0,11.0,54,0.00,,,0.00,868,Wunderground v.1.15,2013-07-06 17:02:00,
2013-07-06 12:06:00,87.6,68.4,29.79,South,185,4.0,11.0,53,0.00,,,0.00,875,Wunderground v.1.15,2013-07-06 17:06:00,
2013-07-06 12:07:00,87.8,69.1,29.79,ESE,122,13.0,13.0,54,0.00,,,0.00,877,Wunderground v.1.15,2013-07-06 17:07:00,
2013-07-06 12:09:00,87.6,68.4,29.79,SSE,156,8.0,13.0,53,0.00,,,0.00,879,Wunderground v.1.15,2013-07-06 17:09:00,
2013-07-06 12:13:00,87.2,69.6,29.79,SSE,157,8.0,10.0,56,0.00,,,0.00,893,Wunderground v.1.15,2013-07-06 17:13:00,
2013-07-06 12:14:00,87.2,68.5,29.79,SSE,154,8.0,12.0,54,0.00,,,0.00,888,Wunderground v.1.15,2013-07-06 17:14:00,
2013-07-06 12:19:00,87.5,69.3,29.78,South,184,4.0,14.0,55,0.00,,,0.00,889,Wunderground v.1.15,2013-07-06 17:19:00,
2013-07-06 12:20:00,87.6,69.4,29.78,South,176,9.0,9.0,55,0.00,,,0.00,886,Wunderground v.1.15,2013-07-06 17:20:00,
2013-07-06 12:23:00,88.0,69.3,29.79,SSE,163,9.0,10.0,54,0.00,,,0.00,895,Wunderground v.1.15,2013-07-06 17:23:00,
2013-07-06 12:25:00,88.0,69.3,29.78,SSE,156,10.0,13.0,54,0.00,,,0.00,893,Wunderground v.1.15,2013-07-06 17:25:00,
2013-07-06 12:26:00,88.0,68.7,29.78,SE,138,9.0,13.0,53,0.00,,,0.00,898,Wunderground v.1.15,2013-07-06 17:26:00,
2013-07-06 12:28:00,88.3,69.0,29.79,SSW,194,6.0,13.0,53,0.00,,,0.00,893,Wunderground v.1.15,2013-07-06 17:28:00,
2013-07-06 12:31:00,88.3,68.4,29.78,South,186,7.0,12.0,52,0.00,,,0.00,902,Wunderground v.1.15,2013-07-06 17:31:00,
2013-07-06 12:32:00,88.3,68.4,29.78,South,176,15.0,15.0,52,0.00,,,0.00,900,Wunderground v.1.15,2013-07-06 17:32:00,
2013-07-06 12:33:00,88.5,68.6,29.78,SSW,199,7.0,15.0,52,0.00,,,0.00,902,Wunderground v.1.15,2013-07-06 17:33:00,
2013-07-06 12:37:00,88.7,68.2,29.78,SSW,200,6.0,15.0,51,0.00,,,0.00,909,Wunderground v.1.15,2013-07-06 17:37:00,
2013-07-06 12:39:00,88.9,69.0,29.78,SSW,196,5.0,15.0,52,0.00,,,0.00,912,Wunderground v.1.15,2013-07-06 17:39:00,
2013-07-06 12:40:00,89.0,69.6,29.78,SSE,167,8.0,8.0,53,0.00,,,0.00,907,Wunderground v.1.15,2013-07-06 17:40:00,
2013-07-06 12:42:00,89.3,68.8,29.78,South,178,9.0,9.0,51,0.00,,,0.00,914,Wunderground v.1.15,2013-07-06 17:42:00,
2013-07-06 12:47:00,88.9,69.6,29.78,South,180,5.0,10.0,53,0.00,,,0.00,916,Wunderground v.1.15,2013-07-06 17:47:00,
2013-07-06 12:48:00,88.9,69.0,29.78,South,180,6.0,10.0,52,0.00,,,0.00,912,Wunderground v.1.15,2013-07-06 17:48:00,
2013-07-06 12:49:00,89.0,69.1,29.78,SSE,165,8.0,10.0,52,0.00,,,0.00,912,Wunderground v.1.15,2013-07-06 17:49:00,
2013-07-06 12:53:00,88.8,68.9,29.77,SSE,160,4.0,12.0,52,0.00,,,0.00,918,Wunderground v.1.15,2013-07-06 17:53:00,
2013-07-06 12:54:00,88.6,68.2,29.77,SSE,155,8.0,12.0,51,0.00,,,0.00,926,Wunderground v.1.15,2013-07-06 17:54:00,
2013-07-06 12:55:00,88.6,69.3,29.77,SSE,159,3.0,12.0,53,0.00,,,0.00,919,Wunderground v.1.15,2013-07-06 17:55:00,
2013-07-06 13:00:00,88.9,69.0,29.77,SSE,163,11.0,11.0,52,0.00,,,0.00,928,Wunderground v.1.15,2013-07-06 18:00:00,
2013-07-06 13:01:00,89.0,69.1,29.77,SSE,150,12.0,12.0,52,0.00,,,0.00,930,Wunderground v.1.15,2013-07-06 18:01:00,
2013-07-06 13:04:00,89.1,68.0,29.77,South,184,3.0,12.0,50,0.00,,,0.00,919,Wunderground v.1.15,2013-07-06 18:04:00,
2013-07-06 13:06:00,89.6,67.9,29.77,SSE,163,8.0,12.0,49,0.00,,,0.00,926,Wunderground v.1.15,2013-07-06 18:06:00,
2013-07-06 13:07:00,90.0,68.3,29.77,SSW,192,4.0,12.0,49,0.00,,,0.00,909,Wunderground v.1.15,2013-07-06 18:07:00,
2013-07-06 13:09:00,90.0,67.7,29.78,SSW,196,4.0,12.0,48,0.00,,,0.00,911,Wunderground v.1.15,2013-07-06 18:09:00,
2013-07-06 13:13:00,89.9,68.8,29.77,SE,128,9.0,10.0,50,0.00,,,0.00,926,Wunderground v.1.15,2013-07-06 18:13:00,
2013-07-06 13:17:00,89.9,68.2,29.77,SSE,165,4.0,14.0,49,0.00,,,0.00,930,Wunderground v.1.15,2013-07-06 18:17:00,
2013-07-06 13:19:00,90.1,67.2,29.78,South,178,8.0,14.0,47,0.00,,,0.00,930,Wunderground v.1.15,2013-07-06 18:19:00,
2013-07-06 13:24:00,90.2,68.5,29.77,SSE,161,4.0,11.0,49,0.00,,,0.00,928,Wunderground v.1.15,2013-07-06 18:24:00,
2013-07-06 13:25:00,90.2,67.9,29.77,South,177,11.0,11.0,48,0.00,,,0.00,932,Wunderground v.1.15,2013-07-06 18:25:00,
2013-07-06 13:30:00,89.9,68.8,29.77,SSE,149,10.0,10.0,50,0.00,,,0.00,926,Wunderground v.1.15,2013-07-06 18:30:00,
2013-07-06 13:31:00,90.0,68.9,29.77,SSE,153,10.0,10.0,50,0.00,,,0.00,918,Wunderground v.1.15,2013-07-06 18:31:00,
2013-07-06 13:36:00,90.1,68.4,29.77,SE,138,7.0,13.0,49,0.00,,,0.00,925,Wunderground v.1.15,2013-07-06 18:36:00,
2013-07-06 13:38:00,90.0,67.7,29.77,SE,144,6.0,13.0,48,0.00,,,0.00,921,Wunderground v.1.15,2013-07-06 18:38:00,
2013-07-06 13:43:00,90.1,66.5,29.77,SSW,197,11.0,12.0,46,0.00,,,0.00,923,Wunderground v.1.15,2013-07-06 18:43:00,
2013-07-06 13:44:00,90.1,66.5,29.77,SW,229,7.0,12.0,46,0.00,,,0.00,925,Wunderground v.1.15,2013-07-06 18:44:00,
2013-07-06 13:48:00,90.1,67.8,29.77,South,181,3.0,15.0,48,0.00,,,0.00,928,Wunderground v.1.15,2013-07-06 18:48:00,
2013-07-06 13:49:00,90.3,67.3,29.77,South,181,5.0,15.0,47,0.00,,,0.00,919,Wunderground v.1.15,2013-07-06 18:49:00,
2013-07-06 13:55:00,90.6,67.0,29.77,South,182,9.0,14.0,46,0.00,,,0.00,923,Wunderground v.1.15,2013-07-06 18:55:00,
2013-07-06 13:56:00,90.5,66.9,29.77,South,188,10.0,14.0,46,0.00,,,0.00,923,Wunderground v.1.15,2013-07-06 18:56:00,
2013-07-06 13:58:00,90.3,67.3,29.77,SSE,159,9.0,14.0,47,0.00,,,0.00,918,Wunderground v.1.15,2013-07-06 18:58:00,
2013-07-06 14:02:00,90.3,67.3,29.76,South,176,12.0,12.0,47,0.00,,,0.00,912,Wunderground v.1.15,2013-07-06 19:02:00,
2013-07-06 14:04:00,90.5,67.5,29.76,SSE,155,6.0,12.0,47,0.00,,,0.00,902,Wunderground v.1.15,2013-07-06 19:04:00,
2013-07-06 14:05:00,90.5,67.5,29.76,South,191,6.0,12.0,47,0.00,,,0.00,912,Wunderground v.1.15,2013-07-06 19:05:00,
2013-07-06 14:10:00,90.5,68.1,29.77,SSE,150,9.0,15.0,48,0.00,,,0.00,898,Wunderground v.1.15,2013-07-06 19:10:00,
2013-07-06 14:11:00,90.1,68.4,29.77,SE,142,12.0,12.0,49,0.00,,,0.00,900,Wunderground v.1.15,2013-07-06 19:11:00,
2013-07-06 14:12:00,90.0,68.3,29.77,SSE,158,11.0,12.0,49,0.00,,,0.00,907,Wunderground v.1.15,2013-07-06 19:12:00,
2013-07-06 14:17:00,90.1,69.0,29.76,SSE,159,7.0,15.0,50,0.00,,,0.00,904,Wunderground v.1.15,2013-07-06 19:17:00,
2013-07-06 14:19:00,90.4,69.2,29.77,South,175,6.0,15.0,50,0.00,,,0.00,905,Wunderground v.1.15,2013-07-06 19:19:00,
2013-07-06 14:20:00,90.6,68.8,29.77,South,178,6.0,15.0,49,0.00,,,0.00,900,Wunderground v.1.15,2013-07-06 19:20:00,
2013-07-06 14:25:00,90.1,67.8,29.77,SSW,198,11.0,13.0,48,0.00,,,0.00,900,Wunderground v.1.15,2013-07-06 19:25:00,
2013-07-06 14:30:00,90.3,69.1,29.77,SSE,161,9.0,13.0,50,0.00,,,0.00,886,Wunderground v.1.15,2013-07-06 19:30:00,
2013-07-06 14:31:00,90.2,69.0,29.77,SSE,158,6.0,8.0,50,0.00,,,0.00,898,Wunderground v.1.15,2013-07-06 19:31:00,
2013-07-06 14:35:00,89.8,69.8,29.76,SSE,149,13.0,13.0,52,0.00,,,0.00,881,Wunderground v.1.15,2013-07-06 19:35:00,
2013-07-06 14:36:00,89.8,69.8,29.76,SE,140,10.0,13.0,52,0.00,,,0.00,881,Wunderground v.1.15,2013-07-06 19:36:00,
2013-07-06 14:37:00,89.8,69.8,29.77,SE,136,9.0,13.0,52,0.00,,,0.00,884,Wunderground v.1.15,2013-07-06 19:37:00,
2013-07-06 14:41:00,90.0,68.9,29.77,SSE,149,8.0,12.0,50,0.00,,,0.00,882,Wunderground v.1.15,2013-07-06 19:41:00,
2013-07-06 14:42:00,89.9,69.3,29.77,South,182,5.0,12.0,51,0.00,,,0.00,877,Wunderground v.1.15,2013-07-06 19:42:00,
2013-07-06 14:47:00,90.2,69.6,29.77,South,191,3.0,12.0,51,0.00,,,0.00,872,Wunderground v.1.15,2013-07-06 19:47:00,
2013-07-06 14:48:00,90.2,69.6,29.77,South,186,8.0,12.0,51,0.00,,,0.00,875,Wunderground v.1.15,2013-07-06 19:48:00,
2013-07-06 14:52:00,90.2,69.6,29.77,SE,145,8.0,13.0,51,0.00,,,0.00,861,Wunderground v.1.15,2013-07-06 19:52:00,
2013-07-06 14:54:00,89.9,68.8,29.77,SSE,150,9.0,13.0,50,0.00,,,0.00,865,Wunderground v.1.15,2013-07-06 19:54:00,
2013-07-06 14:57:00,90.3,69.1,29.77,SE,129,13.0,13.0,50,0.00,,,0.00,851,Wunderground v.1.15,2013-07-06 19:57:00,
2013-07-06 14:59:00,90.2,69.0,29.77,SE,130,9.0,14.0,50,0.00,,,0.00,844,Wunderground v.1.15,2013-07-06 19:59:00,
2013-07-06 15:04:00,89.5,69.0,29.77,SSW,202,6.0,15.0,51,0.00,,,0.00,842,Wunderground v.1.15,2013-07-06 20:04:00,
2013-07-06 15:05:00,89.6,69.1,29.77,SE,139,11.0,15.0,51,0.00,,,0.00,840,Wunderground v.1.15,2013-07-06 20:05:00,
2013-07-06 15:09:00,90.0,68.9,29.77,SSE,151,6.0,15.0,50,0.00,,,0.00,835,Wunderground v.1.15,2013-07-06 20:09:00,
2013-07-06 15:10:00,90.0,68.9,29.77,SE,146,6.0,10.0,50,0.00,,,0.00,835,Wunderground v.1.15,2013-07-06 20:10:00,
2013-07-06 15:14:00,90.3,68.5,29.76,South,175,6.0,11.0,49,0.00,,,0.00,821,Wunderground v.1.15,2013-07-06 20:14:00,
2013-07-06 15:16:00,90.1,69.0,29.77,ESE,121,10.0,11.0,50,0.00,,,0.00,821,Wunderground v.1.15,2013-07-06 20:16:00,
2013-07-06 15:17:00,90.1,70.1,29.77,SE,134,9.0,11.0,52,0.00,,,0.00,821,Wunderground v.1.15,2013-07-06 20:17:00,
2013-07-06 15:20:00,89.8,69.8,29.77,SSE,161,6.0,8.0,52,0.00,,,0.00,814,Wunderground v.1.15,2013-07-06 20:20:00,
2013-07-06 15:23:00,90.1,69.0,29.77,South,173,7.0,11.0,50,0.00,,,0.00,823,Wunderground v.1.15,2013-07-06 20:23:00,
2013-07-06 15:25:00,90.2,69.6,29.76,SSE,163,9.0,11.0,51,0.00,,,0.00,814,Wunderground v.1.15,2013-07-06 20:25:00,
2013-07-06 15:26:00,90.3,69.1,29.76,SSE,163,6.0,11.0,50,0.00,,,0.00,809,Wunderground v.1.15,2013-07-06 20:26:00,
2013-07-06 15:28:00,90.6,70.0,29.77,SSE,166,8.0,11.0,51,0.00,,,0.00,803,Wunderground v.1.15,2013-07-06 20:28:00,
2013-07-06 15:31:00,90.1,69.5,29.76,ESE,104,10.0,10.0,51,0.00,,,0.00,793,Wunderground v.1.15,2013-07-06 20:31:00,
2013-07-06 15:32:00,90.1,69.5,29.76,SE,144,7.0,10.0,51,0.00,,,0.00,793,Wunderground v.1.15,2013-07-06 20:32:00,
2013-07-06 15:37:00,89.9,69.9,29.76,SSE,161,5.0,14.0,52,0.00,,,0.00,791,Wunderground v.1.15,2013-07-06 20:37:00,
2013-07-06 15:38:00,89.9,69.3,29.76,SSE,154,12.0,14.0,51,0.00,,,0.00,789,Wunderground v.1.15,2013-07-06 20:38:00,
2013-07-06 15:42:00,90.1,68.4,29.76,SSE,165,11.0,15.0,49,0.00,,,0.00,786,Wunderground v.1.15,2013-07-06 20:42:00,
2013-07-06 15:44:00,90.0,68.9,29.76,South,185,11.0,15.0,50,0.00,,,0.00,788,Wunderground v.1.15,2013-07-06 20:44:00,
2013-07-06 15:46:00,90.1,68.4,29.76,South,187,8.0,15.0,49,0.00,,,0.00,770,Wunderground v.1.15,2013-07-06 20:46:00,
2013-07-06 15:47:00,90.2,69.6,29.76,SSE,153,7.0,15.0,51,0.00,,,0.00,773,Wunderground v.1.15,2013-07-06 20:47:00,
2013-07-06 15:50:00,89.8,68.7,29.76,SSE,167,7.0,9.0,50,0.00,,,0.00,765,Wunderground v.1.15,2013-07-06 20:50:00,
2013-07-06 15:53:00,90.4,69.2,29.76,SSE,167,8.0,11.0,50,0.00,,,0.00,754,Wunderground v.1.15,2013-07-06 20:53:00,
2013-07-06 15:55:00,90.3,68.5,29.76,SSE,155,7.0,12.0,49,0.00,,,0.00,749,Wunderground v.1.15,2013-07-06 20:55:00,
2013-07-06 15:58:00,89.6,68.5,29.76,SE,132,9.0,13.0,50,0.00,,,0.00,745,Wunderground v.1.15,2013-07-06 20:58:00,
2013-07-06 16:01:00,89.6,69.1,29.76,SSE,167,9.0,13.0,51,0.00,,,0.00,733,Wunderground v.1.15,2013-07-06 21:01:00,
2013-07-06 16:02:00,89.7,68.6,29.76,SSE,148,10.0,13.0,50,0.00,,,0.00,735,Wunderground v.1.15,2013-07-06 21:02:00,
2013-07-06 16:07:00,89.8,69.3,29.76,SSE,153,7.0,13.0,51,0.00,,,0.00,724,Wunderground v.1.15,2013-07-06 21:07:00,
2013-07-06 16:08:00,89.8,68.7,29.76,SSE,151,6.0,15.0,50,0.00,,,0.00,724,Wunderground v.1.15,2013-07-06 21:08:00,
2013-07-06 16:09:00,89.7,69.2,29.76,SE,138,5.0,15.0,51,0.00,,,0.00,717,Wunderground v.1.15,2013-07-06 21:09:00,
2013-07-06 16:13:00,89.8,68.7,29.76,SSE,168,8.0,13.0,50,0.00,,,0.00,701,Wunderground v.1.15,2013-07-06 21:13:00,
2013-07-06 16:14:00,89.8,68.7,29.76,South,183,4.0,13.0,50,0.00,,,0.00,707,Wunderground v.1.15,2013-07-06 21:14:00,
2013-07-06 16:17:00,90.0,69.4,29.76,SSE,164,5.0,13.0,51,0.00,,,0.00,698,Wunderground v.1.15,2013-07-06 21:17:00,
2013-07-06 16:18:00,90.0,68.3,29.76,SE,124,6.0,13.0,49,0.00,,,0.00,700,Wunderground v.1.15,2013-07-06 21:18:00,
2013-07-06 16:19:00,89.9,68.8,29.76,SSE,162,9.0,13.0,50,0.00,,,0.00,698,Wunderground v.1.15,2013-07-06 21:19:00,
2013-07-06 16:22:00,90.1,69.5,29.76,SSE,161,10.0,10.0,51,0.00,,,0.00,689,Wunderground v.1.15,2013-07-06 21:22:00,
2013-07-06 16:23:00,90.1,69.0,29.76,SE,138,5.0,10.0,50,0.00,,,0.00,689,Wunderground v.1.15,2013-07-06 21:23:00,
2013-07-06 16:25:00,89.9,68.8,29.76,SSE,155,9.0,14.0,50,0.00,,,0.00,682,Wunderground v.1.15,2013-07-06 21:25:00,
2013-07-06 16:28:00,90.1,69.0,29.76,South,188,8.0,14.0,50,0.00,,,0.00,677,Wunderground v.1.15,2013-07-06 21:28:00,
2013-07-06 16:31:00,90.5,69.3,29.76,SSW,202,6.0,8.0,50,0.00,,,0.00,666,Wunderground v.1.15,2013-07-06 21:31:00,
2013-07-06 16:33:00,90.7,68.3,29.76,SE,136,8.0,14.0,48,0.00,,,0.00,656,Wunderground v.1.15,2013-07-06 21:33:00,
2013-07-06 16:38:00,90.2,67.9,29.76,SSE,157,5.0,14.0,48,0.00,,,0.00,628,Wunderground v.1.15,2013-07-06 21:38:00,
2013-07-06 16:39:00,90.1,68.4,29.76,SSE,157,4.0,14.0,49,0.00,,,0.00,633,Wunderground v.1.15,2013-07-06 21:39:00,
2013-07-06 16:46:00,90.4,68.6,29.75,South,181,2.0,12.0,49,0.00,,,0.00,629,Wunderground v.1.15,2013-07-06 21:46:00,
2013-07-06 16:47:00,90.4,68.6,29.75,SSE,168,4.0,12.0,49,0.00,,,0.00,622,Wunderground v.1.15,2013-07-06 21:47:00,
2013-07-06 16:52:00,90.2,68.5,29.75,SSE,153,14.0,14.0,49,0.00,,,0.00,605,Wunderground v.1.15,2013-07-06 21:52:00,
2013-07-06 16:53:00,90.3,67.9,29.75,SE,144,12.0,14.0,48,0.00,,,0.00,603,Wunderground v.1.15,2013-07-06 21:53:00,
2013-07-06 16:57:00,90.2,67.9,29.75,South,169,4.0,14.0,48,0.00,,,0.00,596,Wunderground v.1.15,2013-07-06 21:57:00,
2013-07-06 16:59:00,90.4,67.4,29.75,South,184,5.0,14.0,47,0.00,,,0.00,589,Wunderground v.1.15,2013-07-06 21:59:00,
2013-07-06 17:03:00,90.6,68.8,29.75,SE,145,6.0,10.0,49,0.00,,,0.00,580,Wunderground v.1.15,2013-07-06 22:03:00,
2013-07-06 17:05:00,90.7,68.3,29.75,SSE,151,3.0,10.0,48,0.00,,,0.00,575,Wunderground v.1.15,2013-07-06 22:05:00,
2013-07-06 17:10:00,90.0,68.3,29.75,SSE,157,8.0,8.0,49,0.00,,,0.00,566,Wunderground v.1.15,2013-07-06 22:10:00,
2013-07-06 17:11:00,90.0,68.3,29.75,South,178,5.0,8.0,49,0.00,,,0.00,564,Wunderground v.1.15,2013-07-06 22:11:00,
2013-07-06 17:15:00,90.1,68.4,29.75,SSW,196,7.0,10.0,49,0.00,,,0.00,541,Wunderground v.1.15,2013-07-06 22:15:00,
2013-07-06 17:16:00,90.1,68.4,29.75,SSE,166,5.0,10.0,49,0.00,,,0.00,543,Wunderground v.1.15,2013-07-06 22:16:00,
2013-07-06 17:17:00,90.1,67.8,29.75,SE,132,6.0,10.0,48,0.00,,,0.00,543,Wunderground v.1.15,2013-07-06 22:17:00,
2013-07-06 17:21:00,90.1,68.4,29.75,South,171,12.0,12.0,49,0.00,,,0.00,522,Wunderground v.1.15,2013-07-06 22:21:00,
2013-07-06 17:23:00,90.1,69.0,29.75,SSE,151,6.0,12.0,50,0.00,,,0.00,520,Wunderground v.1.15,2013-07-06 22:23:00,
2013-07-06 17:26:00,89.8,67.5,29.75,SSW,192,9.0,12.0,48,0.00,,,0.00,501,Wunderground v.1.15,2013-07-06 22:26:00,
2013-07-06 17:29:00,89.7,68.0,29.75,South,176,13.0,13.0,49,0.00,,,0.00,497,Wunderground v.1.15,2013-07-06 22:29:00,
2013-07-06 17:31:00,89.9,68.2,29.75,SSE,162,6.0,9.0,49,0.00,,,0.00,492,Wunderground v.1.15,2013-07-06 22:31:00,
2013-07-06 17:34:00,90.0,67.1,29.75,South,181,5.0,12.0,47,0.00,,,0.00,482,Wunderground v.1.15,2013-07-06 22:34:00,
2013-07-06 17:35:00,89.9,67.6,29.75,South,181,6.0,12.0,48,0.00,,,0.00,480,Wunderground v.1.15,2013-07-06 22:35:00,
2013-07-06 17:37:00,89.8,68.1,29.75,SSE,161,7.0,12.0,49,0.00,,,0.00,475,Wunderground v.1.15,2013-07-06 22:37:00,
2013-07-06 17:40:00,89.8,67.5,29.75,SSE,159,7.0,8.0,48,0.00,,,0.00,471,Wunderground v.1.15,2013-07-06 22:40:00,
2013-07-06 17:41:00,89.8,68.1,29.75,SSW,202,7.0,8.0,49,0.00,,,0.00,466,Wunderground v.1.15,2013-07-06 22:41:00,
2013-07-06 17:43:00,89.7,68.0,29.75,SSW,192,10.0,10.0,49,0.00,,,0.00,462,Wunderground v.1.15,2013-07-06 22:43:00,
2013-07-06 17:47:00,89.5,67.8,29.74,South,188,10.0,11.0,49,0.00,,,0.00,446,Wunderground v.1.15,2013-07-06 22:47:00,
2013-07-06 17:48:00,89.3,68.2,29.75,SSE,159,11.0,11.0,50,0.00,,,0.00,443,Wunderground v.1.15,2013-07-06 22:48:00,
2013-07-06 17:51:00,89.2,68.1,29.75,SSE,166,9.0,9.0,50,0.00,,,0.00,431,Wunderground v.1.15,2013-07-06 22:51:00,
2013-07-06 17:52:00,89.3,67.6,29.75,South,182,3.0,9.0,49,0.00,,,0.00,432,Wunderground v.1.15,2013-07-06 22:52:00,
2013-07-06 17:54:00,89.5,68.4,29.75,South,184,8.0,9.0,50,0.00,,,0.00,432,Wunderground v.1.15,2013-07-06 22:54:00,
2013-07-06 17:57:00,89.3,67.6,29.75,SSW,207,5.0,12.0,49,0.00,,,0.00,415,Wunderground v.1.15,2013-07-06 22:57:00,
2013-07-06 17:59:00,89.3,67.0,29.75,SSE,153,7.0,12.0,48,0.00,,,0.00,413,Wunderground v.1.15,2013-07-06 22:59:00,
2013-07-06 18:01:00,89.2,67.5,29.75,SSE,159,4.0,8.0,49,0.00,,,0.00,411,Wunderground v.1.15,2013-07-06 23:01:00,
2013-07-06 18:02:00,89.3,67.6,29.74,South,172,7.0,8.0,49,0.00,,,0.00,406,Wunderground v.1.15,2013-07-06 23:02:00,
2013-07-06 18:04:00,89.5,68.4,29.75,South,180,9.0,11.0,50,0.00,,,0.00,403,Wunderground v.1.15,2013-07-06 23:04:00,
2013-07-06 18:07:00,89.2,67.5,29.74,South,169,4.0,11.0,49,0.00,,,0.00,387,Wunderground v.1.15,2013-07-06 23:07:00,
2013-07-06 18:11:00,89.1,68.0,29.74,SSE,158,11.0,11.0,50,0.00,,,0.00,373,Wunderground v.1.15,2013-07-06 23:11:00,
2013-07-06 18:13:00,89.0,67.9,29.74,South,173,10.0,12.0,50,0.00,,,0.00,364,Wunderground v.1.15,2013-07-06 23:13:00,
2013-07-06 18:16:00,88.8,67.8,29.74,SSW,200,4.0,12.0,50,0.00,,,0.00,357,Wunderground v.1.15,2013-07-06 23:16:00,
2013-07-06 18:18:00,88.8,67.8,29.74,South,175,5.0,12.0,50,0.00,,,0.00,355,Wunderground v.1.15,2013-07-06 23:18:00,
2013-07-06 18:20:00,88.7,67.1,29.74,South,173,8.0,8.0,49,0.00,,,0.00,350,Wunderground v.1.15,2013-07-06 23:20:00,
2013-07-06 18:22:00,88.6,67.6,29.74,SSE,164,9.0,9.0,50,0.00,,,0.00,343,Wunderground v.1.15,2013-07-06 23:22:00,
2013-07-06 18:23:00,88.5,67.5,29.74,SSE,164,5.0,12.0,50,0.00,,,0.00,339,Wunderground v.1.15,2013-07-06 23:23:00,
2013-07-06 18:27:00,88.5,68.1,29.74,SSE,163,4.0,12.0,51,0.00,,,0.00,332,Wunderground v.1.15,2013-07-06 23:27:00,
2013-07-06 18:28:00,88.5,67.5,29.74,SSE,148,4.0,12.0,50,0.00,,,0.00,327,Wunderground v.1.15,2013-07-06 23:28:00,
2013-07-06 18:31:00,88.5,67.5,29.74,SE,142,12.0,12.0,50,0.00,,,0.00,313,Wunderground v.1.15,2013-07-06 23:31:00,
2013-07-06 18:34:00,88.3,67.3,29.74,SSE,167,10.0,12.0,50,0.00,,,0.00,304,Wunderground v.1.15,2013-07-06 23:34:00,
2013-07-06 18:35:00,88.3,67.9,29.74,South,170,4.0,12.0,51,0.00,,,0.00,297,Wunderground v.1.15,2013-07-06 23:35:00,
2013-07-06 18:37:00,88.2,67.8,29.74,South,170,4.0,12.0,51,0.00,,,0.00,294,Wunderground v.1.15,2013-07-06 23:37:00,
2013-07-06 18:39:00,88.0,67.6,29.74,SSE,155,5.0,12.0,51,0.00,,,0.00,281,Wunderground v.1.15,2013-07-06 23:39:00,
2013-07-06 18:40:00,87.9,67.5,29.74,SE,146,11.0,11.0,51,0.00,,,0.00,281,Wunderground v.1.15,2013-07-06 23:40:00,
2013-07-06 18:45:00,87.7,67.3,29.74,SSW,200,6.0,11.0,51,0.00,,,0.00,265,Wunderground v.1.15,2013-07-06 23:45:00,
2013-07-06 18:46:00,87.7,67.3,29.74,SSE,163,3.0,11.0,51,0.00,,,0.00,264,Wunderground v.1.15,2013-07-06 23:46:00,
2013-07-06 18:47:00,87.6,67.2,29.74,SSE,159,6.0,11.0,51,0.00,,,0.00,264,Wunderground v.1.15,2013-07-06 23:47:00,
2013-07-06 18:51:00,87.4,68.2,29.74,SSE,150,7.0,7.0,53,0.00,,,0.00,251,Wunderground v.1.15,2013-07-06 23:51:00,
2013-07-06 18:55:00,87.1,67.9,29.75,ESE,110,8.0,8.0,53,0.00,,,0.00,241,Wunderground v.1.15,2013-07-06 23:55:00,
2013-07-06 18:58:00,87.0,68.3,29.75,South,176,3.0,8.0,54,0.00,,,0.00,230,Wunderground v.1.15,2013-07-06 23:58:00,
2013-07-06 19:01:00,86.9,68.3,29.74,SE,138,6.0,9.0,54,0.00,,,0.00,221,Wunderground v.1.15,2013-07-07 00:01:00,
2013-07-06 19:03:00,86.8,68.2,29.74,SE,142,7.0,9.0,54,0.00,,,0.00,216,Wunderground v.1.15,2013-07-07 00:03:00,
2013-07-06 19:04:00,86.8,68.2,29.75,SSE,153,8.0,9.0,54,0.00,,,0.00,216,Wunderground v.1.15,2013-07-07 00:04:00,
2013-07-06 19:06:00,86.7,67.5,29.75,South,174,7.0,11.0,53,0.00,,,0.00,207,Wunderground v.1.15,2013-07-07 00:06:00,
2013-07-06 19:10:00,86.6,67.4,29.75,SSE,159,6.0,10.0,53,0.00,,,0.00,193,Wunderground v.1.15,2013-07-07 00:10:00,
2013-07-06 19:12:00,86.6,67.4,29.74,SSE,148,8.0,13.0,53,0.00,,,0.00,188,Wunderground v.1.15,2013-07-07 00:12:00,
2013-07-06 19:13:00,86.6,67.4,29.74,East,99,14.0,14.0,53,0.00,,,0.00,188,Wunderground v.1.15,2013-07-07 00:13:00,
2013-07-06 19:16:00,86.5,67.9,29.74,SSE,151,2.0,14.0,54,0.00,,,0.00,179,Wunderground v.1.15,2013-07-07 00:16:00,
2013-07-06 19:18:00,86.4,67.8,29.75,SE,146,3.0,14.0,54,0.00,,,0.00,174,Wunderground v.1.15,2013-07-07 00:18:00,
2013-07-06 19:19:00,86.4,68.3,29.75,SE,133,1.0,14.0,55,0.00,,,0.00,169,Wunderground v.1.15,2013-07-07 00:19:00,
2013-07-06 19:21:00,86.2,68.1,29.75,SSE,166,6.0,6.0,55,0.00,,,0.00,163,Wunderground v.1.15,2013-07-07 00:21:00,
2013-07-06 19:25:00,86.0,68.5,29.75,SSE,150,8.0,10.0,56,0.00,,,0.00,151,Wunderground v.1.15,2013-07-07 00:25:00,
2013-07-06 19:26:00,85.9,68.4,29.75,SE,134,4.0,10.0,56,0.00,,,0.00,149,Wunderground v.1.15,2013-07-07 00:26:00,
2013-07-06 19:27:00,85.9,68.4,29.75,SE,146,3.0,10.0,56,0.00,,,0.00,146,Wunderground v.1.15,2013-07-07 00:27:00,
2013-07-06 19:30:00,85.7,68.2,29.75,SSE,149,7.0,7.0,56,0.00,,,0.00,137,Wunderground v.1.15,2013-07-07 00:30:00,
2013-07-06 19:32:00,85.7,67.7,29.75,SE,134,4.0,10.0,55,0.00,,,0.00,134,Wunderground v.1.15,2013-07-07 00:32:00,
2013-07-06 19:34:00,85.7,68.2,29.75,SE,130,8.0,10.0,56,0.00,,,0.00,128,Wunderground v.1.15,2013-07-07 00:34:00,
2013-07-06 19:35:00,85.5,68.0,29.75,SE,131,3.0,10.0,56,0.00,,,0.00,123,Wunderground v.1.15,2013-07-07 00:35:00,
2013-07-06 19:37:00,85.4,68.4,29.75,SE,127,8.0,10.0,57,0.00,,,0.00,118,Wunderground v.1.15,2013-07-07 00:37:00,
2013-07-06 19:39:00,85.2,68.2,29.75,SSE,148,8.0,10.0,57,0.00,,,0.00,113,Wunderground v.1.15,2013-07-07 00:39:00,
2013-07-06 19:40:00,85.1,68.2,29.75,SSE,167,5.0,5.0,57,0.00,,,0.00,111,Wunderground v.1.15,2013-07-07 00:40:00,
2013-07-06 19:42:00,85.0,68.1,29.75,SE,146,5.0,6.0,57,0.00,,,0.00,105,Wunderground v.1.15,2013-07-07 00:42:00,
2013-07-06 19:44:00,85.0,68.1,29.75,SSE,150,6.0,9.0,57,0.00,,,0.00,100,Wunderground v.1.15,2013-07-07 00:44:00,
2013-07-06 19:47:00,84.8,67.9,29.75,SSE,167,2.0,9.0,57,0.00,,,0.00,93,Wunderground v.1.15,2013-07-07 00:47:00,
2013-07-06 19:50:00,84.5,68.1,29.75,SE,144,3.0,4.0,58,0.00,,,0.00,84,Wunderground v.1.15,2013-07-07 00:50:00,
2013-07-06 19:53:00,84.4,68.0,29.75,SE,133,0.0,6.0,58,0.00,,,0.00,79,Wunderground v.1.15,2013-07-07 00:53:00,
2013-07-06 19:58:00,84.3,67.9,29.75,SE,129,6.0,9.0,58,0.00,,,0.00,67,Wunderground v.1.15,2013-07-07 00:58:00,
2013-07-06 19:59:00,84.2,67.8,29.75,SE,138,2.0,9.0,58,0.00,,,0.00,63,Wunderground v.1.15,2013-07-07 00:59:00,
2013-07-06 20:01:00,84.2,67.8,29.75,SE,136,4.0,6.0,58,0.00,,,0.00,60,Wunderground v.1.15,2013-07-07 01:01:00,
2013-07-06 20:03:00,84.1,67.7,29.75,SE,146,2.0,8.0,58,0.00,,,0.00,56,Wunderground v.1.15,2013-07-07 01:03:00,
2013-07-06 20:04:00,84.1,68.2,29.75,SSE,149,5.0,8.0,59,0.00,,,0.00,53,Wunderground v.1.15,2013-07-07 01:04:00,
2013-07-06 20:10:00,83.7,67.8,29.75,SSE,168,3.0,4.0,59,0.00,,,0.00,44,Wunderground v.1.15,2013-07-07 01:10:00,
2013-07-06 20:11:00,83.7,67.8,29.75,SE,137,6.0,6.0,59,0.00,,,0.00,40,Wunderground v.1.15,2013-07-07 01:11:00,
2013-07-06 20:15:00,83.4,67.6,29.75,SE,136,6.0,7.0,59,0.00,,,0.00,35,Wunderground v.1.15,2013-07-07 01:15:00,
2013-07-06 20:18:00,83.4,68.1,29.75,SE,128,3.0,7.0,60,0.00,,,0.00,32,Wunderground v.1.15,2013-07-07 01:18:00,
2013-07-06 20:19:00,83.3,68.0,29.75,SE,135,4.0,7.0,60,0.00,,,0.00,28,Wunderground v.1.15,2013-07-07 01:19:00,
2013-07-06 20:23:00,83.2,67.9,29.75,SE,127,3.0,8.0,60,0.00,,,0.00,23,Wunderground v.1.15,2013-07-07 01:23:00,
2013-07-06 20:25:00,83.0,67.7,29.75,SE,131,3.0,8.0,60,0.00,,,0.00,21,Wunderground v.1.15,2013-07-07 01:25:00,
2013-07-06 20:28:00,82.8,68.0,29.75,SE,128,5.0,8.0,61,0.00,,,0.00,18,Wunderground v.1.15,2013-07-07 01:28:00,
2013-07-06 20:29:00,82.8,68.0,29.75,SE,133,3.0,8.0,61,0.00,,,0.00,16,Wunderground v.1.15,2013-07-07 01:29:00,
2013-07-06 20:30:00,82.8,68.0,29.75,SE,134,4.0,5.0,61,0.00,,,0.00,16,Wunderground v.1.15,2013-07-07 01:30:00,
2013-07-06 20:34:00,82.5,68.2,29.75,ESE,122,4.0,6.0,62,0.00,,,0.00,12,Wunderground v.1.15,2013-07-07 01:34:00,
2013-07-06 20:35:00,82.4,68.1,29.75,SSE,157,5.0,6.0,62,0.00,,,0.00,12,Wunderground v.1.15,2013-07-07 01:35:00,
2013-07-06 20:37:00,82.3,68.0,29.75,SE,134,3.0,6.0,62,0.00,,,0.00,11,Wunderground v.1.15,2013-07-07 01:37:00,
2013-07-06 20:40:00,82.1,67.8,29.75,SE,131,3.0,4.0,62,0.00,,,0.00,9,Wunderground v.1.15,2013-07-07 01:40:00,
2013-07-06 20:42:00,81.9,68.1,29.75,SE,132,3.0,4.0,63,0.00,,,0.00,7,Wunderground v.1.15,2013-07-07 01:42:00,
2013-07-06 20:47:00,81.8,68.0,29.75,SE,129,3.0,5.0,63,0.00,,,0.00,5,Wunderground v.1.15,2013-07-07 01:47:00,
2013-07-06 20:49:00,81.7,67.9,29.75,SSE,154,2.0,5.0,63,0.00,,,0.00,5,Wunderground v.1.15,2013-07-07 01:49:00,
2013-07-06 20:53:00,81.5,68.1,29.76,SSE,163,5.0,5.0,64,0.00,,,0.00,0,Wunderground v.1.15,2013-07-07 01:53:00,
2013-07-06 20:54:00,81.5,68.1,29.76,SE,145,7.0,7.0,64,0.00,,,0.00,0,Wunderground v.1.15,2013-07-07 01:54:00,
2013-07-06 20:58:00,81.4,68.1,29.76,SE,144,2.0,7.0,64,0.00,,,0.00,0,Wunderground v.1.15,2013-07-07 01:58:00,
2013-07-06 21:00:00,81.3,68.0,29.76,SE,132,5.0,5.0,64,0.00,,,0.00,0,Wunderground v.1.15,2013-07-07 02:00:00,
2013-07-06 21:05:00,81.0,68.1,29.76,SSE,155,3.0,5.0,65,0.00,,,0.00,0,Wunderground v.1.15,2013-07-07 02:05:00,
2013-07-06 21:08:00,80.9,68.0,29.76,SE,134,2.0,5.0,65,0.00,,,0.00,0,Wunderground v.1.15,2013-07-07 02:08:00,
2013-07-06 21:10:00,80.8,67.9,29.76,SE,134,1.0,3.0,65,0.00,,,0.00,0,Wunderground v.1.15,2013-07-07 02:10:00,
2013-07-06 21:15:00,80.7,68.3,29.76,SE,142,3.0,5.0,66,0.00,,,0.00,0,Wunderground v.1.15,2013-07-07 02:15:00,
2013-07-06 21:16:00,80.6,68.2,29.76,SE,136,4.0,5.0,66,0.00,,,0.00,0,Wunderground v.1.15,2013-07-07 02:16:00,
2013-07-06 21:17:00,80.5,68.1,29.76,SSE,147,4.0,5.0,66,0.00,,,0.00,0,Wunderground v.1.15,2013-07-07 02:17:00,
2013-07-06 21:20:00,80.4,68.0,29.76,SE,124,4.0,4.0,66,0.00,,,0.00,0,Wunderground v.1.15,2013-07-07 02:20:00,
2013-07-06 21:24:00,80.3,67.9,29.76,SSE,149,3.0,6.0,66,0.00,,,0.00,0,Wunderground v.1.15,2013-07-07 02:24:00,
2013-07-06 21:25:00,80.3,67.9,29.76,ESE,121,4.0,6.0,66,0.00,,,0.00,0,Wunderground v.1.15,2013-07-07 02:25:00,
2013-07-06 21:30:00,80.2,68.2,29.76,ESE,116,3.0,4.0,67,0.00,,,0.00,0,Wunderground v.1.15,2013-07-07 02:30:00,
2013-07-06 21:31:00,80.2,68.2,29.76,SE,145,5.0,5.0,67,0.00,,,0.00,0,Wunderground v.1.15,2013-07-07 02:31:00,
2013-07-06 21:33:00,80.1,68.2,29.77,SE,142,3.0,5.0,67,0.00,,,0.00,0,Wunderground v.1.15,2013-07-07 02:33:00,
2013-07-06 21:38:00,79.8,67.9,29.77,SE,132,4.0,6.0,67,0.00,,,0.00,0,Wunderground v.1.15,2013-07-07 02:38:00,
2013-07-06 21:39:00,79.8,68.3,29.77,SE,130,3.0,6.0,68,0.00,,,0.00,0,Wunderground v.1.15,2013-07-07 02:39:00,
2013-07-06 21:44:00,79.7,68.2,29.77,SE,142,4.0,7.0,68,0.00,,,0.00,0,Wunderground v.1.15,2013-07-07 02:44:00,
2013-07-06 21:45:00,79.6,68.1,29.77,SE,128,1.0,7.0,68,0.00,,,0.00,0,Wunderground v.1.15,2013-07-07 02:45:00,
2013-07-06 21:50:00,79.5,68.0,29.77,SE,132,2.0,3.0,68,0.00,,,0.00,0,Wunderground v.1.15,2013-07-07 02:50:00,
2013-07-06 21:51:00,79.4,67.9,29.77,SSE,149,1.0,8.0,68,0.00,,,0.00,0,Wunderground v.1.15,2013-07-07 02:51:00,
2013-07-06 21:53:00,79.3,68.2,29.77,SE,140,2.0,8.0,69,0.00,,,0.00,0,Wunderground v.1.15,2013-07-07 02:53:00,
2013-07-06 21:55:00,79.3,68.2,29.78,SSE,149,0.0,8.0,69,0.00,,,0.00,0,Wunderground v.1.15,2013-07-07 02:55:00,
2013-07-06 22:00:00,79.1,68.1,29.78,SSE,162,7.0,7.0,69,0.00,,,0.00,0,Wunderground v.1.15,2013-07-07 03:00:00,
2013-07-06 22:01:00,79.2,68.1,29.78,SSE,147,2.0,7.0,69,0.00,,,0.00,0,Wunderground v.1.15,2013-07-07 03:01:00,
2013-07-06 22:06:00,79.1,68.1,29.78,SE,143,3.0,7.0,69,0.00,,,0.00,0,Wunderground v.1.15,2013-07-07 03:06:00,
2013-07-06 22:08:00,79.1,68.1,29.78,SSE,150,5.0,7.0,69,0.00,,,0.00,0,Wunderground v.1.15,2013-07-07 03:08:00,
2013-07-06 22:09:00,79.1,68.1,29.79,SE,142,4.0,7.0,69,0.00,,,0.00,0,Wunderground v.1.15,2013-07-07 03:09:00,
2013-07-06 22:11:00,79.1,68.1,29.79,SE,126,3.0,5.0,69,0.00,,,0.00,0,Wunderground v.1.15,2013-07-07 03:11:00,
2013-07-06 22:14:00,79.0,68.0,29.79,SSE,150,2.0,5.0,69,0.00,,,0.00,0,Wunderground v.1.15,2013-07-07 03:14:00,
2013-07-06 22:18:00,78.9,67.9,29.79,SE,131,4.0,5.0,69,0.00,,,0.00,0,Wunderground v.1.15,2013-07-07 03:18:00,
2013-07-06 22:20:00,78.9,67.4,29.79,SE,126,5.0,5.0,68,0.00,,,0.00,0,Wunderground v.1.15,2013-07-07 03:20:00,
2013-07-06 22:23:00,79.0,67.5,29.79,SSE,161,2.0,5.0,68,0.00,,,0.00,0,Wunderground v.1.15,2013-07-07 03:23:00,
2013-07-06 22:25:00,78.9,67.4,29.79,SSE,164,3.0,5.0,68,0.00,,,0.00,0,Wunderground v.1.15,2013-07-07 03:25:00,
2013-07-06 22:26:00,78.9,67.4,29.79,SSE,156,2.0,6.0,68,0.00,,,0.00,0,Wunderground v.1.15,2013-07-07 03:26:00,
2013-07-06 22:31:00,78.6,67.6,29.80,SSE,167,1.0,3.0,69,0.00,,,0.00,0,Wunderground v.1.15,2013-07-07 03:31:00,
2013-07-06 22:32:00,78.6,67.6,29.80,SSE,161,1.0,3.0,69,0.00,,,0.00,0,Wunderground v.1.15,2013-07-07 03:32:00,
2013-07-06 22:34:00,78.4,67.4,29.80,SSE,167,0.0,3.0,69,0.00,,,0.00,0,Wunderground v.1.15,2013-07-07 03:34:00,
2013-07-06 22:39:00,78.0,67.4,29.80,SSE,165,1.0,4.0,70,0.00,,,0.00,0,Wunderground v.1.15,2013-07-07 03:39:00,
2013-07-06 22:43:00,77.8,67.2,29.80,SSE,156,0.0,3.0,70,0.00,,,0.00,0,Wunderground v.1.15,2013-07-07 03:43:00,
2013-07-06 22:44:00,77.7,67.5,29.80,SSE,157,0.0,3.0,71,0.00,,,0.00,0,Wunderground v.1.15,2013-07-07 03:44:00,
2013-07-06 22:46:00,77.5,67.4,29.80,SSE,157,0.0,3.0,71,0.00,,,0.00,0,Wunderground v.1.15,2013-07-07 03:46:00,
2013-07-06 22:52:00,77.2,67.5,29.80,South,169,1.0,1.0,72,0.00,,,0.00,0,Wunderground v.1.15,2013-07-07 03:52:00,
2013-07-06 22:56:00,77.0,67.3,29.80,SSE,156,2.0,4.0,72,0.00,,,0.00,0,Wunderground v.1.15,2013-07-07 03:56:00,
2013-07-06 22:59:00,77.0,67.3,29.80,SSE,164,1.0,4.0,72,0.00,,,0.00,0,Wunderground v.1.15,2013-07-07 03:59:00,
2013-07-06 23:01:00,76.9,67.2,29.80,SSE,161,3.0,3.0,72,0.00,,,0.00,0,Wunderground v.1.15,2013-07-07 04:01:00,
2013-07-06 23:02:00,76.9,67.2,29.80,SSE,155,2.0,3.0,72,0.00,,,0.00,0,Wunderground v.1.15,2013-07-07 04:02:00,
2013-07-06 23:03:00,77.0,67.3,29.80,SE,144,3.0,3.0,72,0.00,,,0.00,0,Wunderground v.1.15,2013-07-07 04:03:00,
2013-07-06 23:07:00,77.1,67.4,29.80,SSE,152,2.0,4.0,72,0.00,,,0.00,0,Wunderground v.1.15,2013-07-07 04:07:00,
2013-07-06 23:08:00,77.1,67.4,29.80,SSE,157,1.0,4.0,72,0.00,,,0.00,0,Wunderground v.1.15,2013-07-07 04:08:00,
2013-07-06 23:09:00,77.0,67.3,29.80,SSE,157,2.0,4.0,72,0.00,,,0.00,0,Wunderground v.1.15,2013-07-07 04:09:00,
2013-07-06 23:11:00,77.0,67.3,29.80,SSE,147,1.0,3.0,72,0.00,,,0.00,0,Wunderground v.1.15,2013-07-07 04:11:00,
2013-07-06 23:12:00,77.0,67.3,29.80,SSE,159,2.0,3.0,72,0.00,,,0.00,0,Wunderground v.1.15,2013-07-07 04:12:00,
2013-07-06 23:13:00,77.0,67.3,29.80,SSE,157,1.0,3.0,72,0.00,,,0.00,0,Wunderground v.1.15,2013-07-07 04:13:00,
2013-07-06 23:14:00,77.0,67.3,29.80,SSE,157,1.0,3.0,72,0.00,,,0.00,0,Wunderground v.1.15,2013-07-07 04:14:00,
2013-07-06 23:16:00,76.9,67.2,29.80,SE,136,2.0,4.0,72,0.00,,,0.00,0,Wunderground v.1.15,2013-07-07 04:16:00,
2013-07-06 23:18:00,76.8,67.1,29.80,SE,146,2.0,4.0,72,0.00,,,0.00,0,Wunderground v.1.15,2013-07-07 04:18:00,
2013-07-06 23:19:00,76.7,67.0,29.80,SE,136,0.0,4.0,72,0.00,,,0.00,0,Wunderground v.1.15,2013-07-07 04:19:00,
2013-07-06 23:21:00,76.6,66.9,29.80,SE,142,3.0,3.0,72,0.00,,,0.00,0,Wunderground v.1.15,2013-07-07 04:21:00,
2013-07-06 23:23:00,76.5,67.2,29.80,SE,138,0.0,3.0,73,0.00,,,0.00,0,Wunderground v.1.15,2013-07-07 04:23:00,
2013-07-06 23:25:00,76.3,67.0,29.80,SE,139,0.0,3.0,73,0.00,,,0.00,0,Wunderground v.1.15,2013-07-07 04:25:00,
2013-07-06 23:26:00,76.1,66.8,29.80,SE,139,0.0,3.0,73,0.00,,,0.00,0,Wunderground v.1.15,2013-07-07 04:26:00,
2013-07-06 23:28:00,76.0,66.7,29.80,SE,136,3.0,3.0,73,0.00,,,0.00,0,Wunderground v.1.15,2013-07-07 04:28:00,
2013-07-06 23:30:00,76.0,66.7,29.80,SE,134,2.0,2.0,73,0.00,,,0.00,0,Wunderground v.1.15,2013-07-07 04:30:00,
2013-07-06 23:31:00,76.0,66.7,29.80,SE,139,3.0,3.0,73,0.00,,,0.00,0,Wunderground v.1.15,2013-07-07 04:31:00,
2013-07-06 23:32:00,76.0,66.7,29.80,SE,139,0.0,3.0,73,0.00,,,0.00,0,Wunderground v.1.15,2013-07-07 04:32:00,
2013-07-06 23:37:00,75.8,66.9,29.80,SSE,153,2.0,4.0,74,0.00,,,0.00,0,Wunderground v.1.15,2013-07-07 04:37:00,
2013-07-06 23:38:00,75.8,66.5,29.80,SE,145,1.0,4.0,73,0.00,,,0.00,0,Wunderground v.1.15,2013-07-07 04:38:00,
2013-07-06 23:40:00,75.9,66.6,29.80,SSE,154,4.0,4.0,73,0.00,,,0.00,0,Wunderground v.1.15,2013-07-07 04:40:00,
2013-07-06 23:43:00,76.0,66.7,29.80,SE,130,2.0,4.0,73,0.00,,,0.00,0,Wunderground v.1.15,2013-07-07 04:43:00,
2013-07-06 23:44:00,76.0,66.7,29.80,SE,128,0.0,4.0,73,0.00,,,0.00,0,Wunderground v.1.15,2013-07-07 04:44:00,
2013-07-06 23:45:00,75.9,66.6,29.80,SE,128,3.0,4.0,73,0.00,,,0.00,0,Wunderground v.1.15,2013-07-07 04:45:00,
2013-07-06 23:48:00,76.0,66.7,29.80,SE,136,2.0,4.0,73,0.00,,,0.00,0,Wunderground v.1.15,2013-07-07 04:48:00,
2013-07-06 23:49:00,76.1,66.8,29.80,SE,138,3.0,4.0,73,0.00,,,0.00,0,Wunderground v.1.15,2013-07-07 04:49:00,
2013-07-06 23:50:00,76.1,66.8,29.80,SE,129,0.0,2.0,73,0.00,,,0.00,0,Wunderground v.1.15,2013-07-07 04:50:00,
2013-07-06 23:53:00,76.1,66.8,29.80,SSE,149,3.0,3.0,73,0.00,,,0.00,0,Wunderground v.1.15,2013-07-07 04:53:00,
2013-07-06 23:54:00,76.1,66.8,29.80,SE,142,2.0,3.0,73,0.00,,,0.00,0,Wunderground v.1.15,2013-07-07 04:54:00,
2013-07-06 23:55:00,76.1,66.8,29.80,SE,142,1.0,3.0,73,0.00,,,0.00,0,Wunderground v.1.15,2013-07-07 04:55:00,
2013-07-06 23:56:00,76.0,66.7,29.80,SE,134,3.0,3.0,73,0.00,,,0.00,0,Wunderground v.1.15,2013-07-07 04:56:00,
2013-07-06 23:59:00,75.9,66.6,29.80,SE,140,3.0,4.0,73,0.00,,,0.00,0,Wunderground v.1.15,2013-07-07 04:59:00,